Time,TemperatureF,DewpointF,PressureIn,WindDirection,WindDirectionDegrees,WindSpeedMPH,WindSpeedGustMPH,Humidity,HourlyPrecipIn,Conditions,Clouds,dailyrainin,SoftwareType,DateUTC
2013-01-31 00:00:00,8.6,-3.9,29.59,NNW,336,4.7,6.0,56,0.00,,---,0.00,VWS V13.01,2013-01-31 06:00:00,
2013-01-31 00:01:00,8.6,-3.9,29.59,North,353,4.0,4.5,56,0.00,,---,0.00,VWS V13.01,2013-01-31 06:01:00,
2013-01-31 00:02:00,8.6,-3.9,29.59,NW,311,6.9,6.9,56,0.00,,---,0.00,VWS V13.01,2013-01-31 06:02:00,
2013-01-31 00:03:00,8.6,-3.9,29.59,NNW,342,4.5,6.9,56,0.00,,---,0.00,VWS V13.01,2013-01-31 06:03:00,
2013-01-31 00:04:00,8.6,-3.9,29.59,NNW,346,4.5,4.5,56,0.00,,---,0.00,VWS V13.01,2013-01-31 06:04:00,
2013-01-31 00:05:00,8.6,-3.9,29.59,NNW,342,4.5,6.9,56,0.00,,---,0.00,VWS V13.01,2013-01-31 06:05:00,
2013-01-31 00:06:00,8.4,-4.0,29.59,NW,314,5.1,6.0,56,0.00,,---,0.00,VWS V13.01,2013-01-31 06:06:00,
2013-01-31 00:07:00,8.4,-4.0,29.59,North,350,5.6,5.6,56,0.00,,---,0.00,VWS V13.01,2013-01-31 06:07:00,
2013-01-31 00:08:00,8.4,-4.0,29.59,NNE,15,6.5,6.5,56,0.00,,---,0.00,VWS V13.01,2013-01-31 06:08:00,
2013-01-31 00:09:00,8.4,-4.0,29.59,North,357,4.5,6.5,56,0.00,,---,0.00,VWS V13.01,2013-01-31 06:09:00,
2013-01-31 00:10:00,8.4,-4.0,29.59,NNW,334,4.7,4.7,56,0.00,,---,0.00,VWS V13.01,2013-01-31 06:10:00,
2013-01-31 00:11:00,8.4,-4.0,29.59,North,357,4.5,6.5,56,0.00,,---,0.00,VWS V13.01,2013-01-31 06:11:00,
2013-01-31 00:12:00,8.4,-4.0,29.59,NNW,346,6.9,6.9,56,0.00,,---,0.00,VWS V13.01,2013-01-31 06:12:00,
2013-01-31 00:13:00,8.4,-4.0,29.59,WNW,286,5.6,6.9,56,0.00,,---,0.00,VWS V13.01,2013-01-31 06:13:00,
2013-01-31 00:14:00,8.4,-4.0,29.59,North,357,5.6,6.5,56,0.00,,---,0.00,VWS V13.01,2013-01-31 06:14:00,
2013-01-31 00:15:00,8.4,-4.0,29.59,North,11,4.5,5.6,56,0.00,,---,0.00,VWS V13.01,2013-01-31 06:15:00,
2013-01-31 00:16:00,8.4,-4.0,29.59,North,357,5.6,6.0,56,0.00,,---,0.00,VWS V13.01,2013-01-31 06:16:00,
2013-01-31 00:17:00,8.4,-4.0,29.59,North,11,4.5,5.6,56,0.00,,---,0.00,VWS V13.01,2013-01-31 06:17:00,
2013-01-31 00:18:00,8.4,-4.0,29.59,NNW,346,4.0,4.5,56,0.00,,---,0.00,VWS V13.01,2013-01-31 06:18:00,
2013-01-31 00:19:00,8.4,-4.0,29.59,SE,130,4.0,4.0,56,0.00,,---,0.00,VWS V13.01,2013-01-31 06:19:00,
2013-01-31 00:20:00,8.4,-4.0,29.59,SE,130,4.7,4.7,56,0.00,,---,0.00,VWS V13.01,2013-01-31 06:20:00,
2013-01-31 00:21:00,8.4,-4.0,29.59,NNW,345,5.1,5.6,56,0.00,,---,0.00,VWS V13.01,2013-01-31 06:21:00,
2013-01-31 00:22:00,8.4,-4.0,29.59,SE,130,4.7,4.7,56,0.00,,---,0.00,VWS V13.01,2013-01-31 06:22:00,
2013-01-31 00:23:00,8.2,-4.2,29.62,North,4,3.6,4.7,56,0.00,,---,0.00,VWS V13.01,2013-01-31 06:23:00,
2013-01-31 00:24:00,8.2,-4.2,29.62,NNW,329,4.5,4.7,56,0.00,,---,0.00,VWS V13.01,2013-01-31 06:24:00,
2013-01-31 00:25:00,8.2,-4.2,29.62,NNW,329,3.6,4.5,56,0.00,,---,0.00,VWS V13.01,2013-01-31 06:25:00,
2013-01-31 00:26:00,8.2,-4.2,29.62,NNW,339,3.6,4.7,56,0.00,,---,0.00,VWS V13.01,2013-01-31 06:26:00,
2013-01-31 00:27:00,8.2,-4.2,29.62,NNW,339,3.6,4.5,56,0.00,,---,0.00,VWS V13.01,2013-01-31 06:27:00,
2013-01-31 00:28:00,8.2,-4.2,29.62,NNW,339,3.6,4.7,56,0.00,,---,0.00,VWS V13.01,2013-01-31 06:28:00,
2013-01-31 00:29:00,8.2,-4.2,29.62,NNW,339,4.5,5.6,56,0.00,,---,0.00,VWS V13.01,2013-01-31 06:29:00,
2013-01-31 00:30:00,8.1,-4.4,29.62,NNE,17,4.0,4.5,56,0.00,,---,0.00,VWS V13.01,2013-01-31 06:30:00,
2013-01-31 00:31:00,8.1,-4.4,29.62,NNE,17,4.0,4.0,56,0.00,,---,0.00,VWS V13.01,2013-01-31 06:31:00,
2013-01-31 00:32:00,8.1,-4.4,29.62,North,353,4.7,6.0,56,0.00,,---,0.00,VWS V13.01,2013-01-31 06:32:00,
2013-01-31 00:33:00,8.1,-4.4,29.62,North,353,4.7,6.0,56,0.00,,---,0.00,VWS V13.01,2013-01-31 06:33:00,
2013-01-31 00:34:00,8.1,-4.4,29.62,NNW,344,3.6,3.6,56,0.00,,---,0.00,VWS V13.01,2013-01-31 06:34:00,
2013-01-31 00:35:00,8.1,-4.4,29.62,NNW,344,4.5,4.5,56,0.00,,---,0.00,VWS V13.01,2013-01-31 06:35:00,
2013-01-31 00:36:00,8.1,-4.4,29.62,NNW,344,3.1,4.5,56,0.00,,---,0.00,VWS V13.01,2013-01-31 06:36:00,
2013-01-31 00:37:00,8.1,-4.4,29.62,NNW,344,4.0,4.5,56,0.00,,---,0.00,VWS V13.01,2013-01-31 06:37:00,
2013-01-31 00:38:00,8.1,-4.4,29.62,NNW,344,4.0,4.5,56,0.00,,---,0.00,VWS V13.01,2013-01-31 06:38:00,
2013-01-31 00:39:00,8.1,-4.4,29.62,NNW,337,4.0,6.0,56,0.00,,---,0.00,VWS V13.01,2013-01-31 06:39:00,
2013-01-31 00:40:00,8.1,-4.4,29.62,North,6,4.5,5.6,56,0.00,,---,0.00,VWS V13.01,2013-01-31 06:40:00,
2013-01-31 00:41:00,8.1,-4.4,29.62,North,353,4.0,4.5,56,0.00,,---,0.00,VWS V13.01,2013-01-31 06:41:00,
2013-01-31 00:42:00,8.1,-4.4,29.62,NNE,27,3.6,4.5,56,0.00,,---,0.00,VWS V13.01,2013-01-31 06:42:00,
2013-01-31 00:43:00,8.1,-4.4,29.62,NNE,27,3.6,4.5,56,0.00,,---,0.00,VWS V13.01,2013-01-31 06:43:00,
2013-01-31 00:44:00,8.1,-4.4,29.62,NNW,336,3.6,4.5,56,0.00,,---,0.00,VWS V13.01,2013-01-31 06:44:00,
2013-01-31 00:45:00,7.9,-4.6,29.62,NNW,335,4.7,4.7,56,0.00,,---,0.00,VWS V13.01,2013-01-31 06:45:00,
2013-01-31 00:46:00,7.9,-4.6,29.62,NNW,339,6.0,6.9,56,0.00,,---,0.00,VWS V13.01,2013-01-31 06:46:00,
2013-01-31 00:47:00,7.9,-4.6,29.62,North,353,3.1,6.0,56,0.00,,---,0.00,VWS V13.01,2013-01-31 06:47:00,
2013-01-31 00:48:00,7.9,-4.6,29.62,North,353,3.1,6.0,56,0.00,,---,0.00,VWS V13.01,2013-01-31 06:48:00,
2013-01-31 00:49:00,7.9,-4.6,29.62,NNW,327,4.0,5.1,56,0.00,,---,0.00,VWS V13.01,2013-01-31 06:49:00,
2013-01-31 00:50:00,7.9,-4.6,29.62,North,7,5.6,5.6,56,0.00,,---,0.00,VWS V13.01,2013-01-31 06:50:00,
2013-01-31 00:51:00,7.9,-4.6,29.62,North,8,4.0,5.6,56,0.00,,---,0.00,VWS V13.01,2013-01-31 06:51:00,
2013-01-31 00:52:00,7.9,-4.6,29.62,NNW,328,4.5,5.6,56,0.00,,---,0.00,VWS V13.01,2013-01-31 06:52:00,
2013-01-31 00:53:00,7.9,-4.6,29.62,NNW,328,4.5,5.6,56,0.00,,---,0.00,VWS V13.01,2013-01-31 06:53:00,
2013-01-31 00:54:00,7.9,-4.6,29.62,North,357,4.7,4.7,56,0.00,,---,0.00,VWS V13.01,2013-01-31 06:54:00,
2013-01-31 00:55:00,7.9,-4.6,29.62,North,5,4.0,6.0,56,0.00,,---,0.00,VWS V13.01,2013-01-31 06:55:00,
2013-01-31 00:56:00,7.9,-4.6,29.62,North,349,6.0,6.0,56,0.00,,---,0.00,VWS V13.01,2013-01-31 06:56:00,
2013-01-31 00:57:00,7.9,-4.6,29.62,North,357,4.0,6.0,56,0.00,,---,0.00,VWS V13.01,2013-01-31 06:57:00,
2013-01-31 00:58:00,7.9,-4.6,29.62,North,357,4.0,6.0,56,0.00,,---,0.00,VWS V13.01,2013-01-31 06:58:00,
2013-01-31 00:59:00,7.9,-4.6,29.62,NNW,327,4.5,4.7,56,0.00,,---,0.00,VWS V13.01,2013-01-31 06:59:00,
2013-01-31 01:00:00,7.9,-4.6,29.62,North,3,4.0,4.5,56,0.00,,---,0.00,VWS V13.01,2013-01-31 07:00:00,
2013-01-31 01:01:00,7.9,-4.6,29.62,NNW,346,4.5,4.7,56,0.00,,---,0.00,VWS V13.01,2013-01-31 07:01:00,
2013-01-31 01:02:00,7.9,-4.6,29.62,WSW,253,4.7,4.7,56,0.00,,---,0.00,VWS V13.01,2013-01-31 07:02:00,
2013-01-31 01:03:00,7.9,-4.6,29.62,WSW,253,4.7,4.7,56,0.00,,---,0.00,VWS V13.01,2013-01-31 07:03:00,
2013-01-31 01:04:00,7.9,-4.6,29.62,West,263,3.6,4.5,56,0.00,,---,0.00,VWS V13.01,2013-01-31 07:04:00,
2013-01-31 01:05:00,7.9,-4.6,29.62,West,265,3.6,4.0,56,0.00,,---,0.00,VWS V13.01,2013-01-31 07:05:00,
2013-01-31 01:06:00,7.7,-4.7,29.62,West,265,4.0,4.0,56,0.00,,---,0.00,VWS V13.01,2013-01-31 07:06:00,
2013-01-31 01:07:00,7.7,-4.7,29.62,West,265,4.0,4.5,56,0.00,,---,0.00,VWS V13.01,2013-01-31 07:07:00,
2013-01-31 01:08:00,7.7,-4.7,29.62,West,265,4.0,4.5,56,0.00,,---,0.00,VWS V13.01,2013-01-31 07:08:00,
2013-01-31 01:09:00,7.7,-4.7,29.62,North,3,4.7,5.6,56,0.00,,---,0.00,VWS V13.01,2013-01-31 07:09:00,
2013-01-31 01:10:00,7.7,-4.7,29.62,North,357,3.6,5.1,56,0.00,,---,0.00,VWS V13.01,2013-01-31 07:10:00,
2013-01-31 01:11:00,7.7,-4.7,29.62,North,357,3.6,4.5,56,0.00,,---,0.00,VWS V13.01,2013-01-31 07:11:00,
2013-01-31 01:12:00,7.7,-4.7,29.62,North,357,4.0,4.0,56,0.00,,---,0.00,VWS V13.01,2013-01-31 07:12:00,
2013-01-31 01:13:00,7.7,-4.7,29.62,North,357,4.0,4.0,56,0.00,,---,0.00,VWS V13.01,2013-01-31 07:13:00,
2013-01-31 01:14:00,7.7,-4.7,29.62,NNW,335,4.0,4.5,56,0.00,,---,0.00,VWS V13.01,2013-01-31 07:14:00,
2013-01-31 01:15:00,7.7,-4.7,29.62,NNW,335,3.6,4.0,56,0.00,,---,0.00,VWS V13.01,2013-01-31 07:15:00,
2013-01-31 01:16:00,7.7,-4.7,29.62,NNE,20,4.5,4.5,56,0.00,,---,0.00,VWS V13.01,2013-01-31 07:16:00,
2013-01-31 01:17:00,7.7,-4.7,29.62,SE,133,4.5,5.6,56,0.00,,---,0.00,VWS V13.01,2013-01-31 07:17:00,
2013-01-31 01:18:00,7.7,-4.7,29.62,SE,133,4.5,5.6,56,0.00,,---,0.00,VWS V13.01,2013-01-31 07:18:00,
2013-01-31 01:19:00,7.7,-4.7,29.62,North,357,3.6,4.0,56,0.00,,---,0.00,VWS V13.01,2013-01-31 07:19:00,
2013-01-31 01:20:00,7.7,-4.7,29.62,North,357,4.0,4.7,56,0.00,,---,0.00,VWS V13.01,2013-01-31 07:20:00,
2013-01-31 01:21:00,7.7,-4.7,29.62,North,357,3.1,4.0,56,0.00,,---,0.00,VWS V13.01,2013-01-31 07:21:00,
2013-01-31 01:22:00,7.7,-4.7,29.62,North,357,4.0,4.0,56,0.00,,---,0.00,VWS V13.01,2013-01-31 07:22:00,
2013-01-31 01:23:00,7.7,-4.7,29.62,North,357,4.0,4.0,56,0.00,,---,0.00,VWS V13.01,2013-01-31 07:23:00,
2013-01-31 01:24:00,7.7,-4.7,29.62,North,357,3.1,4.7,56,0.00,,---,0.00,VWS V13.01,2013-01-31 07:24:00,
2013-01-31 01:25:00,7.7,-4.7,29.62,North,357,3.1,3.6,56,0.00,,---,0.00,VWS V13.01,2013-01-31 07:25:00,
2013-01-31 01:26:00,7.7,-4.7,29.62,North,357,3.6,4.0,56,0.00,,---,0.00,VWS V13.01,2013-01-31 07:26:00,
2013-01-31 01:27:00,7.7,-4.7,29.62,North,357,4.0,4.0,56,0.00,,---,0.00,VWS V13.01,2013-01-31 07:27:00,
2013-01-31 01:28:00,7.7,-4.7,29.62,North,357,4.0,4.0,56,0.00,,---,0.00,VWS V13.01,2013-01-31 07:28:00,
2013-01-31 01:29:00,7.7,-4.7,29.62,North,357,0.0,3.6,56,0.00,,---,0.00,VWS V13.01,2013-01-31 07:29:00,
2013-01-31 01:30:00,7.7,-4.7,29.62,North,357,0.0,2.7,56,0.00,,---,0.00,VWS V13.01,2013-01-31 07:30:00,
2013-01-31 01:31:00,7.7,-4.7,29.62,North,357,0.0,0.0,56,0.00,,---,0.00,VWS V13.01,2013-01-31 07:31:00,
2013-01-31 01:32:00,7.7,-4.7,29.62,North,357,2.7,3.6,56,0.00,,---,0.00,VWS V13.01,2013-01-31 07:32:00,
2013-01-31 01:33:00,7.7,-4.7,29.62,North,357,2.7,3.6,56,0.00,,---,0.00,VWS V13.01,2013-01-31 07:33:00,
2013-01-31 01:34:00,7.7,-4.7,29.62,North,357,0.0,0.0,56,0.00,,---,0.00,VWS V13.01,2013-01-31 07:34:00,
2013-01-31 01:35:00,7.7,-4.7,29.62,North,357,0.0,0.0,56,0.00,,---,0.00,VWS V13.01,2013-01-31 07:35:00,
2013-01-31 01:36:00,7.7,-4.7,29.62,North,357,0.0,0.0,56,0.00,,---,0.00,VWS V13.01,2013-01-31 07:36:00,
2013-01-31 01:37:00,7.7,-4.7,29.62,North,4,4.0,4.7,56,0.00,,---,0.00,VWS V13.01,2013-01-31 07:37:00,
2013-01-31 01:38:00,7.7,-4.7,29.62,North,4,4.0,4.7,56,0.00,,---,0.00,VWS V13.01,2013-01-31 07:38:00,
2013-01-31 01:39:00,7.7,-4.7,29.62,North,8,3.6,4.5,56,0.00,,---,0.00,VWS V13.01,2013-01-31 07:39:00,
2013-01-31 01:40:00,7.7,-4.7,29.62,North,3,5.1,5.6,56,0.00,,---,0.00,VWS V13.01,2013-01-31 07:40:00,
2013-01-31 01:41:00,7.7,-4.7,29.62,North,357,4.7,5.6,56,0.00,,---,0.00,VWS V13.01,2013-01-31 07:41:00,
2013-01-31 01:42:00,7.7,-4.7,29.62,NNW,343,5.6,5.6,56,0.00,,---,0.00,VWS V13.01,2013-01-31 07:42:00,
2013-01-31 01:43:00,7.7,-4.7,29.62,NNW,343,5.6,5.6,56,0.00,,---,0.00,VWS V13.01,2013-01-31 07:43:00,
2013-01-31 01:44:00,7.7,-4.7,29.62,NNW,344,3.6,4.7,56,0.00,,---,0.00,VWS V13.01,2013-01-31 07:44:00,
2013-01-31 01:45:00,7.7,-4.7,29.62,NNE,12,4.5,4.5,56,0.00,,---,0.00,VWS V13.01,2013-01-31 07:45:00,
2013-01-31 01:46:00,7.7,-4.7,29.62,North,1,4.7,5.6,56,0.00,,---,0.00,VWS V13.01,2013-01-31 07:46:00,
2013-01-31 01:47:00,7.7,-4.7,29.62,North,357,4.5,6.0,56,0.00,,---,0.00,VWS V13.01,2013-01-31 07:47:00,
2013-01-31 01:48:00,7.7,-4.7,29.62,North,357,4.5,6.0,56,0.00,,---,0.00,VWS V13.01,2013-01-31 07:48:00,
2013-01-31 01:49:00,7.7,-4.7,29.62,North,357,4.5,5.1,56,0.00,,---,0.00,VWS V13.01,2013-01-31 07:49:00,
2013-01-31 01:50:00,7.5,-4.9,29.62,North,353,5.1,5.1,56,0.00,,---,0.00,VWS V13.01,2013-01-31 07:50:00,
2013-01-31 01:51:00,7.5,-4.9,29.62,North,349,4.5,5.1,56,0.00,,---,0.00,VWS V13.01,2013-01-31 07:51:00,
2013-01-31 01:52:00,7.5,-4.9,29.62,NE,39,3.6,4.5,56,0.00,,---,0.00,VWS V13.01,2013-01-31 07:52:00,
2013-01-31 01:53:00,7.5,-4.9,29.62,NE,39,3.6,4.5,56,0.00,,---,0.00,VWS V13.01,2013-01-31 07:53:00,
2013-01-31 01:54:00,7.5,-4.9,29.62,NE,38,4.5,4.5,56,0.00,,---,0.00,VWS V13.01,2013-01-31 07:54:00,
2013-01-31 01:55:00,7.5,-4.9,29.62,North,4,4.0,4.7,56,0.00,,---,0.00,VWS V13.01,2013-01-31 07:55:00,
2013-01-31 01:56:00,7.5,-4.9,29.62,NNW,348,4.5,4.5,56,0.00,,---,0.00,VWS V13.01,2013-01-31 07:56:00,
2013-01-31 01:57:00,7.5,-4.9,29.62,North,353,6.0,6.0,56,0.00,,---,0.00,VWS V13.01,2013-01-31 07:57:00,
2013-01-31 01:58:00,7.5,-4.9,29.62,North,353,6.0,6.0,56,0.00,,---,0.00,VWS V13.01,2013-01-31 07:58:00,
2013-01-31 01:59:00,7.5,-4.9,29.62,NNW,335,4.0,4.7,56,0.00,,---,0.00,VWS V13.01,2013-01-31 07:59:00,
2013-01-31 02:00:00,7.5,-4.9,29.62,NNW,335,3.1,4.7,56,0.00,,---,0.00,VWS V13.01,2013-01-31 08:00:00,
2013-01-31 02:01:00,7.5,-4.9,29.62,North,357,4.0,4.7,56,0.00,,---,0.00,VWS V13.01,2013-01-31 08:01:00,
2013-01-31 02:02:00,7.5,-4.9,29.62,NW,321,3.6,4.5,56,0.00,,---,0.00,VWS V13.01,2013-01-31 08:02:00,
2013-01-31 02:03:00,7.5,-4.9,29.62,NW,321,3.6,4.5,56,0.00,,---,0.00,VWS V13.01,2013-01-31 08:03:00,
2013-01-31 02:04:00,7.5,-4.9,29.62,North,357,4.0,4.5,56,0.00,,---,0.00,VWS V13.01,2013-01-31 08:04:00,
2013-01-31 02:05:00,7.5,-4.9,29.62,North,353,4.7,6.0,56,0.00,,---,0.00,VWS V13.01,2013-01-31 08:05:00,
2013-01-31 02:06:00,7.5,-4.9,29.62,NNW,339,4.0,4.7,56,0.00,,---,0.00,VWS V13.01,2013-01-31 08:06:00,
2013-01-31 02:07:00,7.5,-4.9,29.62,North,5,3.6,4.5,56,0.00,,---,0.00,VWS V13.01,2013-01-31 08:07:00,
2013-01-31 02:08:00,7.5,-4.9,29.62,North,5,3.6,4.5,56,0.00,,---,0.00,VWS V13.01,2013-01-31 08:08:00,
2013-01-31 02:09:00,7.5,-4.9,29.65,NNW,345,2.7,4.0,56,0.00,,---,0.00,VWS V13.01,2013-01-31 08:09:00,
2013-01-31 02:10:00,7.5,-4.9,29.65,NNW,345,0.0,4.0,56,0.00,,---,0.00,VWS V13.01,2013-01-31 08:10:00,
2013-01-31 02:11:00,7.5,-4.9,29.65,NNW,346,0.0,0.0,56,0.00,,---,0.00,VWS V13.01,2013-01-31 08:11:00,
2013-01-31 02:12:00,7.5,-4.9,29.65,NNW,345,0.0,0.0,56,0.00,,---,0.00,VWS V13.01,2013-01-31 08:12:00,
2013-01-31 02:13:00,7.5,-4.9,29.65,NNW,345,0.0,0.0,56,0.00,,---,0.00,VWS V13.01,2013-01-31 08:13:00,
2013-01-31 02:14:00,7.5,-4.9,29.65,NNW,345,3.1,3.1,56,0.00,,---,0.00,VWS V13.01,2013-01-31 08:14:00,
2013-01-31 02:15:00,7.5,-4.9,29.65,NNW,346,2.7,3.1,56,0.00,,---,0.00,VWS V13.01,2013-01-31 08:15:00,
2013-01-31 02:16:00,7.5,-4.9,29.65,NNW,346,3.1,3.1,56,0.00,,---,0.00,VWS V13.01,2013-01-31 08:16:00,
2013-01-31 02:17:00,7.5,-4.9,29.65,NNW,345,0.0,3.1,56,0.00,,---,0.00,VWS V13.01,2013-01-31 08:17:00,
2013-01-31 02:18:00,7.5,-4.9,29.65,NNW,345,0.0,3.1,56,0.00,,---,0.00,VWS V13.01,2013-01-31 08:18:00,
2013-01-31 02:19:00,7.5,-4.9,29.65,NNW,345,0.0,0.0,56,0.00,,---,0.00,VWS V13.01,2013-01-31 08:19:00,
2013-01-31 02:20:00,7.5,-4.9,29.65,NNW,345,0.0,0.0,56,0.00,,---,0.00,VWS V13.01,2013-01-31 08:20:00,
2013-01-31 02:21:00,7.5,-4.9,29.65,NNW,345,0.0,0.0,56,0.00,,---,0.00,VWS V13.01,2013-01-31 08:21:00,
2013-01-31 02:22:00,7.5,-4.9,29.65,NNW,345,0.0,0.0,56,0.00,,---,0.00,VWS V13.01,2013-01-31 08:22:00,
2013-01-31 02:23:00,7.5,-4.9,29.65,NNW,345,0.0,0.0,56,0.00,,---,0.00,VWS V13.01,2013-01-31 08:23:00,
2013-01-31 02:24:00,7.5,-4.9,29.65,NNW,346,0.0,0.0,56,0.00,,---,0.00,VWS V13.01,2013-01-31 08:24:00,
2013-01-31 02:25:00,7.5,-4.9,29.65,NNW,345,0.0,0.0,56,0.00,,---,0.00,VWS V13.01,2013-01-31 08:25:00,
2013-01-31 02:26:00,7.5,-4.9,29.65,NNW,345,0.0,0.0,56,0.00,,---,0.00,VWS V13.01,2013-01-31 08:26:00,
2013-01-31 02:27:00,7.5,-4.9,29.65,WNW,283,3.6,4.5,56,0.00,,---,0.00,VWS V13.01,2013-01-31 08:27:00,
2013-01-31 02:28:00,7.5,-4.9,29.65,WNW,283,3.6,4.5,56,0.00,,---,0.00,VWS V13.01,2013-01-31 08:28:00,
2013-01-31 02:29:00,7.5,-4.9,29.65,NNW,327,3.6,3.6,56,0.00,,---,0.00,VWS V13.01,2013-01-31 08:29:00,
2013-01-31 02:30:00,7.3,-5.1,29.65,NNW,327,3.6,4.5,56,0.00,,---,0.00,VWS V13.01,2013-01-31 08:30:00,
2013-01-31 02:31:00,7.3,-5.1,29.65,NW,318,4.0,4.7,56,0.00,,---,0.00,VWS V13.01,2013-01-31 08:31:00,
2013-01-31 02:32:00,7.3,-5.1,29.65,NW,318,3.6,4.5,56,0.00,,---,0.00,VWS V13.01,2013-01-31 08:32:00,
2013-01-31 02:33:00,7.3,-5.1,29.65,NW,318,3.6,4.5,56,0.00,,---,0.00,VWS V13.01,2013-01-31 08:33:00,
2013-01-31 02:34:00,7.3,-5.1,29.65,NW,326,4.7,4.7,56,0.00,,---,0.00,VWS V13.01,2013-01-31 08:34:00,
2013-01-31 02:35:00,7.3,-5.1,29.65,North,2,6.5,6.5,56,0.00,,---,0.00,VWS V13.01,2013-01-31 08:35:00,
2013-01-31 02:36:00,7.3,-5.1,29.65,NW,320,4.7,6.9,56,0.00,,---,0.00,VWS V13.01,2013-01-31 08:36:00,
2013-01-31 02:37:00,7.3,-5.1,29.65,NNE,19,4.7,5.1,56,0.00,,---,0.00,VWS V13.01,2013-01-31 08:37:00,
2013-01-31 02:38:00,7.3,-5.1,29.65,NNE,19,4.7,5.1,56,0.00,,---,0.00,VWS V13.01,2013-01-31 08:38:00,
2013-01-31 02:39:00,7.3,-5.1,29.65,NNW,331,4.5,4.7,56,0.00,,---,0.00,VWS V13.01,2013-01-31 08:39:00,
2013-01-31 02:40:00,7.3,-5.1,29.65,NNW,331,3.6,4.5,56,0.00,,---,0.00,VWS V13.01,2013-01-31 08:40:00,
2013-01-31 02:41:00,7.3,-5.1,29.65,NNE,27,6.0,6.0,56,0.00,,---,0.00,VWS V13.01,2013-01-31 08:41:00,
2013-01-31 02:42:00,7.3,-5.1,29.65,NNW,337,4.0,6.0,56,0.00,,---,0.00,VWS V13.01,2013-01-31 08:42:00,
2013-01-31 02:43:00,7.3,-5.1,29.65,NNW,337,4.0,6.0,56,0.00,,---,0.00,VWS V13.01,2013-01-31 08:43:00,
2013-01-31 02:44:00,7.2,-5.2,29.65,NNW,346,3.1,4.0,56,0.00,,---,0.00,VWS V13.01,2013-01-31 08:44:00,
2013-01-31 02:45:00,7.2,-5.2,29.65,NW,321,4.5,4.7,56,0.00,,---,0.00,VWS V13.01,2013-01-31 08:45:00,
2013-01-31 02:46:00,7.2,-5.2,29.65,NW,304,4.5,4.5,56,0.00,,---,0.00,VWS V13.01,2013-01-31 08:46:00,
2013-01-31 02:47:00,7.2,-5.2,29.65,NNW,327,3.6,4.5,56,0.00,,---,0.00,VWS V13.01,2013-01-31 08:47:00,
2013-01-31 02:48:00,7.2,-5.2,29.65,NNW,327,3.6,4.5,56,0.00,,---,0.00,VWS V13.01,2013-01-31 08:48:00,
2013-01-31 02:49:00,7.2,-5.2,29.65,NNW,327,4.0,4.7,56,0.00,,---,0.00,VWS V13.01,2013-01-31 08:49:00,
2013-01-31 02:50:00,7.2,-5.2,29.65,NNW,327,3.6,4.0,56,0.00,,---,0.00,VWS V13.01,2013-01-31 08:50:00,
2013-01-31 02:51:00,7.2,-5.2,29.65,North,357,4.0,4.0,56,0.00,,---,0.00,VWS V13.01,2013-01-31 08:51:00,
2013-01-31 02:52:00,7.2,-5.2,29.65,North,357,3.6,4.0,56,0.00,,---,0.00,VWS V13.01,2013-01-31 08:52:00,
2013-01-31 02:53:00,7.2,-5.2,29.65,North,357,3.6,4.0,56,0.00,,---,0.00,VWS V13.01,2013-01-31 08:53:00,
2013-01-31 02:54:00,7.2,-5.2,29.65,NNW,344,3.1,5.6,56,0.00,,---,0.00,VWS V13.01,2013-01-31 08:54:00,
2013-01-31 02:55:00,7.2,-5.2,29.65,NNW,344,4.0,4.0,56,0.00,,---,0.00,VWS V13.01,2013-01-31 08:55:00,
2013-01-31 02:56:00,7.2,-5.2,29.65,NNW,344,3.1,4.0,56,0.00,,---,0.00,VWS V13.01,2013-01-31 08:56:00,
2013-01-31 02:57:00,7.2,-5.2,29.65,NW,314,4.7,4.7,56,0.00,,---,0.00,VWS V13.01,2013-01-31 08:57:00,
2013-01-31 02:58:00,7.2,-5.2,29.65,NW,314,4.7,4.7,56,0.00,,---,0.00,VWS V13.01,2013-01-31 08:58:00,
2013-01-31 02:59:00,7.0,-5.4,29.65,NNW,337,4.5,5.1,56,0.00,,---,0.00,VWS V13.01,2013-01-31 08:59:00,
2013-01-31 03:00:00,7.0,-5.4,29.65,NNW,331,4.0,4.5,56,0.00,,---,0.00,VWS V13.01,2013-01-31 09:00:00,
2013-01-31 03:01:00,7.0,-5.4,29.65,NNW,335,4.7,6.0,56,0.00,,---,0.00,VWS V13.01,2013-01-31 09:01:00,
2013-01-31 03:02:00,7.0,-5.4,29.65,WNW,289,3.6,4.7,56,0.00,,---,0.00,VWS V13.01,2013-01-31 09:02:00,
2013-01-31 03:03:00,7.0,-5.4,29.65,WNW,289,3.6,4.7,56,0.00,,---,0.00,VWS V13.01,2013-01-31 09:03:00,
2013-01-31 03:04:00,7.0,-5.4,29.65,NW,320,4.7,4.7,56,0.00,,---,0.00,VWS V13.01,2013-01-31 09:04:00,
2013-01-31 03:05:00,7.0,-5.4,29.65,NW,312,4.0,4.7,56,0.00,,---,0.00,VWS V13.01,2013-01-31 09:05:00,
2013-01-31 03:06:00,7.0,-5.4,29.65,NW,308,2.7,5.1,56,0.00,,---,0.00,VWS V13.01,2013-01-31 09:06:00,
2013-01-31 03:07:00,7.0,-5.4,29.65,NW,308,3.6,3.6,56,0.00,,---,0.00,VWS V13.01,2013-01-31 09:07:00,
2013-01-31 03:08:00,7.0,-5.4,29.65,NW,308,3.6,3.6,56,0.00,,---,0.00,VWS V13.01,2013-01-31 09:08:00,
2013-01-31 03:09:00,7.0,-5.4,29.65,NW,308,3.1,3.6,56,0.00,,---,0.00,VWS V13.01,2013-01-31 09:09:00,
2013-01-31 03:10:00,7.0,-5.4,29.65,North,357,4.7,4.7,56,0.00,,---,0.00,VWS V13.01,2013-01-31 09:10:00,
2013-01-31 03:11:00,7.0,-5.4,29.65,NNW,328,3.6,5.1,56,0.00,,---,0.00,VWS V13.01,2013-01-31 09:11:00,
2013-01-31 03:12:00,7.0,-5.4,29.65,NNW,328,4.0,4.7,56,0.00,,---,0.00,VWS V13.01,2013-01-31 09:12:00,
2013-01-31 03:13:00,7.0,-5.4,29.65,NNW,328,4.0,4.7,56,0.00,,---,0.00,VWS V13.01,2013-01-31 09:13:00,
2013-01-31 03:14:00,6.8,-5.6,29.65,NW,304,3.1,4.7,56,0.00,,---,0.00,VWS V13.01,2013-01-31 09:14:00,
2013-01-31 03:15:00,6.8,-5.6,29.65,NNW,345,3.1,3.1,56,0.00,,---,0.00,VWS V13.01,2013-01-31 09:15:00,
2013-01-31 03:16:00,6.8,-5.6,29.65,North,4,3.6,4.5,56,0.00,,---,0.00,VWS V13.01,2013-01-31 09:16:00,
2013-01-31 03:17:00,6.8,-5.6,29.65,North,4,3.6,3.6,56,0.00,,---,0.00,VWS V13.01,2013-01-31 09:17:00,
2013-01-31 03:18:00,6.8,-5.6,29.65,North,4,3.6,3.6,56,0.00,,---,0.00,VWS V13.01,2013-01-31 09:18:00,
2013-01-31 03:19:00,6.8,-5.6,29.65,North,4,4.0,4.0,56,0.00,,---,0.00,VWS V13.01,2013-01-31 09:19:00,
2013-01-31 03:20:00,6.8,-5.6,29.65,North,4,4.0,4.0,56,0.00,,---,0.00,VWS V13.01,2013-01-31 09:20:00,
2013-01-31 03:21:00,6.8,-5.6,29.65,North,4,4.0,4.5,56,0.00,,---,0.00,VWS V13.01,2013-01-31 09:21:00,
2013-01-31 03:22:00,6.8,-5.6,29.65,North,4,3.1,4.0,56,0.00,,---,0.00,VWS V13.01,2013-01-31 09:22:00,
2013-01-31 03:23:00,6.8,-5.6,29.65,North,4,3.1,4.0,56,0.00,,---,0.00,VWS V13.01,2013-01-31 09:23:00,
2013-01-31 03:24:00,6.8,-5.6,29.65,North,3,4.7,4.7,56,0.00,,---,0.00,VWS V13.01,2013-01-31 09:24:00,
2013-01-31 03:25:00,6.8,-5.6,29.65,North,3,4.0,4.7,56,0.00,,---,0.00,VWS V13.01,2013-01-31 09:25:00,
2013-01-31 03:26:00,6.8,-5.6,29.65,North,3,3.1,4.0,56,0.00,,---,0.00,VWS V13.01,2013-01-31 09:26:00,
2013-01-31 03:27:00,6.8,-5.6,29.65,North,353,4.0,4.7,56,0.00,,---,0.00,VWS V13.01,2013-01-31 09:27:00,
2013-01-31 03:28:00,6.8,-5.6,29.65,North,353,4.5,4.5,56,0.00,,---,0.00,VWS V13.01,2013-01-31 09:28:00,
2013-01-31 03:29:00,6.8,-5.6,29.65,North,353,4.0,4.7,56,0.00,,---,0.00,VWS V13.01,2013-01-31 09:29:00,
2013-01-31 03:30:00,6.8,-5.6,29.65,NW,323,3.6,5.1,56,0.00,,---,0.00,VWS V13.01,2013-01-31 09:30:00,
2013-01-31 03:31:00,6.8,-5.6,29.65,NW,323,2.7,4.0,56,0.00,,---,0.00,VWS V13.01,2013-01-31 09:31:00,
2013-01-31 03:32:00,6.8,-5.6,29.65,NNW,340,4.5,5.1,56,0.00,,---,0.00,VWS V13.01,2013-01-31 09:32:00,
2013-01-31 03:33:00,6.8,-5.6,29.65,NNW,340,4.0,4.5,56,0.00,,---,0.00,VWS V13.01,2013-01-31 09:33:00,
2013-01-31 03:34:00,6.8,-5.6,29.65,NNW,340,4.0,4.5,56,0.00,,---,0.00,VWS V13.01,2013-01-31 09:34:00,
2013-01-31 03:35:00,6.8,-5.6,29.65,North,7,3.6,4.0,56,0.00,,---,0.00,VWS V13.01,2013-01-31 09:35:00,
2013-01-31 03:36:00,6.8,-5.6,29.65,North,7,3.6,3.6,56,0.00,,---,0.00,VWS V13.01,2013-01-31 09:36:00,
2013-01-31 03:37:00,6.8,-5.6,29.65,NNW,328,0.0,4.7,56,0.00,,---,0.00,VWS V13.01,2013-01-31 09:37:00,
2013-01-31 03:38:00,6.6,-5.7,29.65,NNW,328,0.0,0.0,56,0.00,,---,0.00,VWS V13.01,2013-01-31 09:38:00,
2013-01-31 03:39:00,6.6,-5.7,29.65,NNW,328,0.0,0.0,56,0.00,,---,0.00,VWS V13.01,2013-01-31 09:39:00,
2013-01-31 03:40:00,6.6,-5.7,29.65,West,281,3.6,3.6,56,0.00,,---,0.00,VWS V13.01,2013-01-31 09:40:00,
2013-01-31 03:41:00,6.6,-5.7,29.65,NW,321,3.6,4.0,56,0.00,,---,0.00,VWS V13.01,2013-01-31 09:41:00,
2013-01-31 03:42:00,6.6,-5.7,29.65,NNW,348,4.0,4.7,56,0.00,,---,0.00,VWS V13.01,2013-01-31 09:42:00,
2013-01-31 03:43:00,6.6,-5.7,29.65,NNW,348,3.1,4.0,56,0.00,,---,0.00,VWS V13.01,2013-01-31 09:43:00,
2013-01-31 03:44:00,6.6,-5.7,29.65,NNW,348,3.1,4.0,56,0.00,,---,0.00,VWS V13.01,2013-01-31 09:44:00,
2013-01-31 03:45:00,6.6,-5.7,29.65,NNW,348,3.6,3.6,56,0.00,,---,0.00,VWS V13.01,2013-01-31 09:45:00,
2013-01-31 03:46:00,6.6,-5.7,29.65,NNW,348,4.0,4.0,56,0.00,,---,0.00,VWS V13.01,2013-01-31 09:46:00,
2013-01-31 03:47:00,6.6,-5.7,29.65,NNW,348,0.0,4.0,56,0.00,,---,0.00,VWS V13.01,2013-01-31 09:47:00,
2013-01-31 03:48:00,6.6,-5.7,29.65,NNW,348,0.0,0.0,56,0.00,,---,0.00,VWS V13.01,2013-01-31 09:48:00,
2013-01-31 03:49:00,6.6,-5.7,29.65,NNW,348,0.0,0.0,56,0.00,,---,0.00,VWS V13.01,2013-01-31 09:49:00,
2013-01-31 03:50:00,6.6,-5.7,29.65,NNW,348,0.0,0.0,56,0.00,,---,0.00,VWS V13.01,2013-01-31 09:50:00,
2013-01-31 03:51:00,6.6,-5.7,29.65,NNW,348,0.0,0.0,56,0.00,,---,0.00,VWS V13.01,2013-01-31 09:51:00,
2013-01-31 03:52:00,6.6,-5.7,29.65,NNW,332,5.1,5.1,56,0.00,,---,0.00,VWS V13.01,2013-01-31 09:52:00,
2013-01-31 03:53:00,6.6,-5.7,29.65,NNE,27,4.7,5.1,56,0.00,,---,0.00,VWS V13.01,2013-01-31 09:53:00,
2013-01-31 03:54:00,6.6,-5.7,29.65,NNW,345,4.7,6.0,56,0.00,,---,0.00,VWS V13.01,2013-01-31 09:54:00,
2013-01-31 03:55:00,6.6,-5.7,29.65,North,7,3.1,4.7,56,0.00,,---,0.00,VWS V13.01,2013-01-31 09:55:00,
2013-01-31 03:56:00,6.6,-5.7,29.65,WNW,299,2.7,4.0,56,0.00,,---,0.00,VWS V13.01,2013-01-31 09:56:00,
2013-01-31 03:57:00,6.6,-5.7,29.65,North,7,3.1,4.7,56,0.00,,---,0.00,VWS V13.01,2013-01-31 09:57:00,
2013-01-31 03:58:00,6.6,-5.7,29.65,WNW,299,0.0,4.0,56,0.00,,---,0.00,VWS V13.01,2013-01-31 09:58:00,
2013-01-31 03:59:00,6.6,-5.7,29.65,WNW,299,3.1,3.1,56,0.00,,---,0.00,VWS V13.01,2013-01-31 09:59:00,
2013-01-31 04:00:00,6.6,-5.7,29.65,NNW,331,4.0,4.0,56,0.00,,---,0.00,VWS V13.01,2013-01-31 10:00:00,
2013-01-31 04:01:00,6.6,-5.7,29.65,NNW,330,2.7,4.0,56,0.00,,---,0.00,VWS V13.01,2013-01-31 10:01:00,
2013-01-31 04:02:00,6.6,-5.7,29.65,NNW,331,4.0,4.0,56,0.00,,---,0.00,VWS V13.01,2013-01-31 10:02:00,
2013-01-31 04:03:00,6.6,-5.7,29.65,WNW,292,2.7,4.7,56,0.00,,---,0.00,VWS V13.01,2013-01-31 10:03:00,
2013-01-31 04:04:00,6.6,-5.7,29.65,WNW,292,3.1,3.1,56,0.00,,---,0.00,VWS V13.01,2013-01-31 10:04:00,
2013-01-31 04:05:00,6.6,-5.7,29.65,WNW,292,3.1,3.1,56,0.00,,---,0.00,VWS V13.01,2013-01-31 10:05:00,
2013-01-31 04:06:00,6.6,-5.7,29.65,NW,326,3.1,4.5,56,0.00,,---,0.00,VWS V13.01,2013-01-31 10:06:00,
2013-01-31 04:07:00,6.6,-5.7,29.65,NW,326,3.1,4.5,56,0.00,,---,0.00,VWS V13.01,2013-01-31 10:07:00,
2013-01-31 04:08:00,6.6,-5.7,29.65,North,353,3.1,4.0,56,0.00,,---,0.00,VWS V13.01,2013-01-31 10:08:00,
2013-01-31 04:09:00,6.6,-5.7,29.65,WSW,254,4.0,4.0,56,0.00,,---,0.00,VWS V13.01,2013-01-31 10:09:00,
2013-01-31 04:10:00,6.6,-5.7,29.65,NNW,344,4.5,5.1,56,0.00,,---,0.00,VWS V13.01,2013-01-31 10:10:00,
2013-01-31 04:11:00,6.6,-5.7,29.65,South,175,0.0,4.5,56,0.00,,---,0.00,VWS V13.01,2013-01-31 10:11:00,
2013-01-31 04:12:00,6.6,-5.7,29.65,South,175,0.0,4.5,56,0.00,,---,0.00,VWS V13.01,2013-01-31 10:12:00,
2013-01-31 04:13:00,6.6,-5.7,29.65,North,353,4.0,4.0,56,0.00,,---,0.00,VWS V13.01,2013-01-31 10:13:00,
2013-01-31 04:14:00,6.6,-5.7,29.65,North,353,3.6,4.0,56,0.00,,---,0.00,VWS V13.01,2013-01-31 10:14:00,
2013-01-31 04:15:00,6.6,-5.7,29.65,WNW,284,4.7,4.7,56,0.00,,---,0.00,VWS V13.01,2013-01-31 10:15:00,
2013-01-31 04:16:00,6.4,-5.9,29.65,West,269,4.7,4.7,56,0.00,,---,0.00,VWS V13.01,2013-01-31 10:16:00,
2013-01-31 04:17:00,6.4,-5.9,29.65,West,278,4.5,4.7,56,0.00,,---,0.00,VWS V13.01,2013-01-31 10:17:00,
2013-01-31 04:18:00,6.4,-5.9,29.65,NNW,348,3.6,4.7,56,0.00,,---,0.00,VWS V13.01,2013-01-31 10:18:00,
2013-01-31 04:19:00,6.4,-5.9,29.65,West,278,4.5,4.7,56,0.00,,---,0.00,VWS V13.01,2013-01-31 10:19:00,
2013-01-31 04:20:00,6.4,-5.9,29.65,North,350,3.1,4.0,56,0.00,,---,0.00,VWS V13.01,2013-01-31 10:20:00,
2013-01-31 04:21:00,6.4,-5.9,29.65,North,350,2.7,3.6,56,0.00,,---,0.00,VWS V13.01,2013-01-31 10:21:00,
2013-01-31 04:22:00,6.4,-5.9,29.65,North,350,3.1,3.6,56,0.00,,---,0.00,VWS V13.01,2013-01-31 10:22:00,
2013-01-31 04:23:00,6.4,-5.9,29.65,North,350,3.1,3.6,56,0.00,,---,0.00,VWS V13.01,2013-01-31 10:23:00,
2013-01-31 04:24:00,6.4,-5.9,29.65,North,350,3.1,3.6,56,0.00,,---,0.00,VWS V13.01,2013-01-31 10:24:00,
2013-01-31 04:25:00,6.4,-5.9,29.65,West,263,4.5,4.7,56,0.00,,---,0.00,VWS V13.01,2013-01-31 10:25:00,
2013-01-31 04:26:00,6.4,-5.9,29.65,NW,309,3.6,4.7,56,0.00,,---,0.00,VWS V13.01,2013-01-31 10:26:00,
2013-01-31 04:27:00,6.4,-5.9,29.65,NNW,336,4.5,4.5,56,0.00,,---,0.00,VWS V13.01,2013-01-31 10:27:00,
2013-01-31 04:28:00,6.4,-5.9,29.65,NNW,329,5.1,6.0,56,0.00,,---,0.00,VWS V13.01,2013-01-31 10:28:00,
2013-01-31 04:29:00,6.4,-5.9,29.65,NNW,329,5.1,5.1,56,0.00,,---,0.00,VWS V13.01,2013-01-31 10:29:00,
2013-01-31 04:30:00,6.4,-5.9,29.65,NNW,329,5.1,5.1,56,0.00,,---,0.00,VWS V13.01,2013-01-31 10:30:00,
2013-01-31 04:31:00,6.4,-5.9,29.65,North,353,4.7,5.1,56,0.00,,---,0.00,VWS V13.01,2013-01-31 10:31:00,
2013-01-31 04:32:00,6.4,-5.9,29.65,NNW,340,4.5,4.7,56,0.00,,---,0.00,VWS V13.01,2013-01-31 10:32:00,
2013-01-31 04:33:00,6.4,-5.9,29.65,NNW,335,4.0,4.5,56,0.00,,---,0.00,VWS V13.01,2013-01-31 10:33:00,
2013-01-31 04:34:00,6.4,-5.9,29.65,NW,310,3.6,4.7,56,0.00,,---,0.00,VWS V13.01,2013-01-31 10:34:00,
2013-01-31 04:35:00,6.4,-5.9,29.65,WNW,290,6.5,6.5,56,0.00,,---,0.00,VWS V13.01,2013-01-31 10:35:00,
2013-01-31 04:36:00,6.4,-5.9,29.65,NW,310,3.6,4.7,56,0.00,,---,0.00,VWS V13.01,2013-01-31 10:36:00,
2013-01-31 04:37:00,6.4,-5.9,29.65,NNW,338,4.0,4.0,56,0.00,,---,0.00,VWS V13.01,2013-01-31 10:37:00,
2013-01-31 04:38:00,6.4,-5.9,29.65,West,281,3.6,4.5,56,0.00,,---,0.00,VWS V13.01,2013-01-31 10:38:00,
2013-01-31 04:39:00,6.4,-5.9,29.65,NW,320,3.6,4.5,56,0.00,,---,0.00,VWS V13.01,2013-01-31 10:39:00,
2013-01-31 04:40:00,6.4,-5.9,29.65,NW,320,3.1,4.5,56,0.00,,---,0.00,VWS V13.01,2013-01-31 10:40:00,
2013-01-31 04:41:00,6.4,-5.9,29.65,NW,320,3.1,4.5,56,0.00,,---,0.00,VWS V13.01,2013-01-31 10:41:00,
2013-01-31 04:42:00,6.4,-5.9,29.65,North,3,4.0,4.0,56,0.00,,---,0.00,VWS V13.01,2013-01-31 10:42:00,
2013-01-31 04:43:00,6.4,-5.9,29.65,NNW,334,4.7,4.7,56,0.00,,---,0.00,VWS V13.01,2013-01-31 10:43:00,
2013-01-31 04:44:00,6.4,-5.9,29.65,North,353,4.7,4.7,56,0.00,,---,0.00,VWS V13.01,2013-01-31 10:44:00,
2013-01-31 04:45:00,6.4,-5.9,29.65,North,353,4.5,6.0,56,0.00,,---,0.00,VWS V13.01,2013-01-31 10:45:00,
2013-01-31 04:46:00,6.4,-5.9,29.65,NW,323,4.0,4.5,56,0.00,,---,0.00,VWS V13.01,2013-01-31 10:46:00,
2013-01-31 04:47:00,6.4,-5.9,29.65,North,353,4.5,6.0,56,0.00,,---,0.00,VWS V13.01,2013-01-31 10:47:00,
2013-01-31 04:48:00,6.4,-5.9,29.65,WNW,290,2.7,4.0,56,0.00,,---,0.00,VWS V13.01,2013-01-31 10:48:00,
2013-01-31 04:49:00,6.4,-5.9,29.65,NW,304,3.6,3.6,56,0.00,,---,0.00,VWS V13.01,2013-01-31 10:49:00,
2013-01-31 04:50:00,6.4,-5.9,29.65,NW,314,3.6,4.0,56,0.00,,---,0.00,VWS V13.01,2013-01-31 10:50:00,
2013-01-31 04:51:00,6.4,-5.9,29.65,NNW,340,3.6,4.5,56,0.00,,---,0.00,VWS V13.01,2013-01-31 10:51:00,
2013-01-31 04:52:00,6.4,-5.9,29.65,NW,314,3.6,4.0,56,0.00,,---,0.00,VWS V13.01,2013-01-31 10:52:00,
2013-01-31 04:53:00,6.4,-5.9,29.65,NNW,340,0.0,4.0,56,0.00,,---,0.00,VWS V13.01,2013-01-31 10:53:00,
2013-01-31 04:54:00,6.4,-5.9,29.68,SSE,150,4.5,5.6,56,0.00,,---,0.00,VWS V13.01,2013-01-31 10:54:00,
2013-01-31 04:55:00,6.4,-5.9,29.68,NNW,336,4.5,5.1,56,0.00,,---,0.00,VWS V13.01,2013-01-31 10:55:00,
2013-01-31 04:56:00,6.4,-5.9,29.68,North,353,3.6,5.1,56,0.00,,---,0.00,VWS V13.01,2013-01-31 10:56:00,
2013-01-31 04:57:00,6.4,-5.9,29.68,NNW,336,4.5,5.1,56,0.00,,---,0.00,VWS V13.01,2013-01-31 10:57:00,
2013-01-31 04:58:00,6.3,-6.1,29.68,NNW,342,4.0,5.1,56,0.00,,---,0.00,VWS V13.01,2013-01-31 10:58:00,
2013-01-31 04:59:00,6.3,-6.1,29.68,NW,326,5.6,6.5,56,0.00,,---,0.00,VWS V13.01,2013-01-31 10:59:00,
2013-01-31 05:00:00,6.3,-6.1,29.68,NW,307,5.1,6.0,56,0.00,,---,0.00,VWS V13.01,2013-01-31 11:00:00,
2013-01-31 05:01:00,6.3,-6.1,29.68,WSW,251,7.4,7.4,56,0.00,,---,0.00,VWS V13.01,2013-01-31 11:01:00,
2013-01-31 05:02:00,6.3,-6.1,29.68,West,272,4.7,7.4,56,0.00,,---,0.00,VWS V13.01,2013-01-31 11:02:00,
2013-01-31 05:03:00,6.3,-6.1,29.68,WSW,251,7.4,7.4,56,0.00,,---,0.00,VWS V13.01,2013-01-31 11:03:00,
2013-01-31 05:04:00,6.3,-6.1,29.68,WNW,302,3.6,4.5,56,0.00,,---,0.00,VWS V13.01,2013-01-31 11:04:00,
2013-01-31 05:05:00,6.3,-6.1,29.68,NW,313,4.5,4.5,56,0.00,,---,0.00,VWS V13.01,2013-01-31 11:05:00,
2013-01-31 05:07:00,6.3,-6.1,29.68,WNW,286,2.7,3.1,56,0.00,,---,0.00,VWS V13.01,2013-01-31 11:07:00,
2013-01-31 05:08:00,6.3,-6.1,29.68,WNW,286,2.7,3.1,56,0.00,,---,0.00,VWS V13.01,2013-01-31 11:08:00,
2013-01-31 05:09:00,6.3,-6.1,29.68,WNW,302,4.5,4.5,56,0.00,,---,0.00,VWS V13.01,2013-01-31 11:09:00,
2013-01-31 05:10:00,6.3,-6.1,29.68,NNW,327,3.1,4.7,56,0.00,,---,0.00,VWS V13.01,2013-01-31 11:10:00,
2013-01-31 05:11:00,6.3,-6.1,29.68,NW,321,4.7,4.7,56,0.00,,---,0.00,VWS V13.01,2013-01-31 11:11:00,
2013-01-31 05:12:00,6.3,-6.1,29.68,NNW,346,3.6,5.1,56,0.00,,---,0.00,VWS V13.01,2013-01-31 11:12:00,
2013-01-31 05:13:00,6.3,-6.1,29.68,NNW,330,3.6,4.5,56,0.00,,---,0.00,VWS V13.01,2013-01-31 11:13:00,
2013-01-31 05:14:00,6.3,-6.1,29.68,NNW,346,3.6,5.1,56,0.00,,---,0.00,VWS V13.01,2013-01-31 11:14:00,
2013-01-31 05:15:00,6.3,-6.1,29.68,NNW,345,5.1,6.0,56,0.00,,---,0.00,VWS V13.01,2013-01-31 11:15:00,
2013-01-31 05:16:00,6.3,-6.1,29.68,NW,325,4.5,5.6,56,0.00,,---,0.00,VWS V13.01,2013-01-31 11:16:00,
2013-01-31 05:17:00,6.3,-6.1,29.68,North,353,3.6,4.7,56,0.00,,---,0.00,VWS V13.01,2013-01-31 11:17:00,
2013-01-31 05:18:00,6.3,-6.1,29.68,WNW,297,6.0,6.0,56,0.00,,---,0.00,VWS V13.01,2013-01-31 11:18:00,
2013-01-31 05:19:00,6.3,-6.1,29.68,WNW,297,6.0,6.0,56,0.00,,---,0.00,VWS V13.01,2013-01-31 11:19:00,
2013-01-31 05:20:00,6.3,-6.1,29.68,NW,321,0.0,3.6,56,0.00,,---,0.00,VWS V13.01,2013-01-31 11:20:00,
2013-01-31 05:21:00,6.3,-6.1,29.68,NW,320,3.6,3.6,56,0.00,,---,0.00,VWS V13.01,2013-01-31 11:21:00,
2013-01-31 05:22:00,6.3,-6.1,29.68,NW,321,2.7,3.6,56,0.00,,---,0.00,VWS V13.01,2013-01-31 11:22:00,
2013-01-31 05:23:00,6.3,-6.1,29.68,NW,321,0.0,2.7,56,0.00,,---,0.00,VWS V13.01,2013-01-31 11:23:00,
2013-01-31 05:24:00,6.3,-6.1,29.68,NW,321,0.0,2.7,56,0.00,,---,0.00,VWS V13.01,2013-01-31 11:24:00,
2013-01-31 05:25:00,6.3,-6.1,29.68,NW,325,4.0,5.1,56,0.00,,---,0.00,VWS V13.01,2013-01-31 11:25:00,
2013-01-31 05:26:00,6.3,-6.1,29.68,NNW,346,3.6,4.0,56,0.00,,---,0.00,VWS V13.01,2013-01-31 11:26:00,
2013-01-31 05:27:00,6.3,-6.1,29.68,NNE,30,3.6,5.1,56,0.00,,---,0.00,VWS V13.01,2013-01-31 11:27:00,
2013-01-31 05:28:00,6.3,-6.1,29.68,NW,320,4.5,4.5,56,0.00,,---,0.00,VWS V13.01,2013-01-31 11:28:00,
2013-01-31 05:29:00,6.3,-6.1,29.68,NW,320,4.5,4.5,56,0.00,,---,0.00,VWS V13.01,2013-01-31 11:29:00,
2013-01-31 05:30:00,6.3,-6.1,29.68,NNE,14,6.9,6.9,56,0.00,,---,0.00,VWS V13.01,2013-01-31 11:30:00,
2013-01-31 05:31:00,6.3,-6.1,29.68,NNW,345,6.0,6.9,56,0.00,,---,0.00,VWS V13.01,2013-01-31 11:31:00,
2013-01-31 05:32:00,6.3,-6.1,29.68,NW,320,6.0,6.0,56,0.00,,---,0.00,VWS V13.01,2013-01-31 11:32:00,
2013-01-31 05:33:00,6.3,-6.1,29.68,NNW,335,4.0,6.0,56,0.00,,---,0.00,VWS V13.01,2013-01-31 11:33:00,
2013-01-31 05:34:00,6.3,-6.1,29.68,North,353,5.6,7.4,56,0.00,,---,0.00,VWS V13.01,2013-01-31 11:34:00,
2013-01-31 05:35:00,6.3,-6.1,29.68,NNW,335,4.0,6.0,56,0.00,,---,0.00,VWS V13.01,2013-01-31 11:35:00,
2013-01-31 05:36:00,6.3,-6.1,29.68,NW,308,5.1,7.4,56,0.00,,---,0.00,VWS V13.01,2013-01-31 11:36:00,
2013-01-31 05:37:00,6.3,-6.1,29.68,NW,309,3.6,5.1,56,0.00,,---,0.00,VWS V13.01,2013-01-31 11:37:00,
2013-01-31 05:38:00,6.3,-6.1,29.68,NW,309,4.0,4.0,56,0.00,,---,0.00,VWS V13.01,2013-01-31 11:38:00,
2013-01-31 05:39:00,6.3,-6.1,29.68,NW,317,5.6,5.6,56,0.00,,---,0.00,VWS V13.01,2013-01-31 11:39:00,
2013-01-31 05:40:00,6.3,-6.1,29.68,NE,45,6.0,6.0,56,0.00,,---,0.00,VWS V13.01,2013-01-31 11:40:00,
2013-01-31 05:41:00,6.3,-6.1,29.68,NW,317,5.6,5.6,56,0.00,,---,0.00,VWS V13.01,2013-01-31 11:41:00,
2013-01-31 05:42:00,6.3,-6.1,29.68,ENE,72,4.7,5.6,56,0.00,,---,0.00,VWS V13.01,2013-01-31 11:42:00,
2013-01-31 05:43:00,6.3,-6.1,29.68,NW,312,3.1,5.1,56,0.00,,---,0.00,VWS V13.01,2013-01-31 11:43:00,
2013-01-31 05:44:00,6.3,-6.1,29.68,North,357,3.6,4.5,56,0.00,,---,0.00,VWS V13.01,2013-01-31 11:44:00,
2013-01-31 05:45:00,6.3,-6.1,29.68,North,357,4.5,4.5,56,0.00,,---,0.00,VWS V13.01,2013-01-31 11:45:00,
2013-01-31 05:46:00,6.3,-6.1,29.68,North,357,3.6,4.5,56,0.00,,---,0.00,VWS V13.01,2013-01-31 11:46:00,
2013-01-31 05:47:00,6.3,-6.1,29.68,NNW,333,5.1,6.5,56,0.00,,---,0.00,VWS V13.01,2013-01-31 11:47:00,
2013-01-31 05:48:00,6.3,-6.1,29.68,North,350,4.5,6.5,56,0.00,,---,0.00,VWS V13.01,2013-01-31 11:48:00,
2013-01-31 05:49:00,6.3,-6.1,29.68,WNW,296,3.1,5.1,56,0.00,,---,0.00,VWS V13.01,2013-01-31 11:49:00,
2013-01-31 05:50:00,6.3,-6.1,29.68,NW,326,4.0,4.5,56,0.00,,---,0.00,VWS V13.01,2013-01-31 11:50:00,
2013-01-31 05:51:00,6.3,-6.1,29.68,NW,319,3.6,5.1,56,0.00,,---,0.00,VWS V13.01,2013-01-31 11:51:00,
2013-01-31 05:52:00,6.3,-6.1,29.68,NW,326,4.0,4.5,56,0.00,,---,0.00,VWS V13.01,2013-01-31 11:52:00,
2013-01-31 05:53:00,6.3,-6.1,29.68,North,357,4.5,5.1,56,0.00,,---,0.00,VWS V13.01,2013-01-31 11:53:00,
2013-01-31 05:54:00,6.3,-6.1,29.68,North,357,4.7,4.7,56,0.00,,---,0.00,VWS V13.01,2013-01-31 11:54:00,
2013-01-31 05:55:00,6.3,-6.1,29.68,North,353,4.5,6.9,56,0.00,,---,0.00,VWS V13.01,2013-01-31 11:55:00,
2013-01-31 05:56:00,6.3,-6.1,29.68,NNW,345,5.6,6.5,56,0.00,,---,0.00,VWS V13.01,2013-01-31 11:56:00,
2013-01-31 05:57:00,6.1,-6.2,29.68,NNE,32,5.1,5.6,56,0.00,,---,0.00,VWS V13.01,2013-01-31 11:57:00,
2013-01-31 05:58:00,6.3,-6.1,29.68,NNW,345,5.6,6.5,56,0.00,,---,0.00,VWS V13.01,2013-01-31 11:58:00,
2013-01-31 05:59:00,6.1,-6.2,29.68,WNW,301,3.1,4.5,56,0.00,,---,0.00,VWS V13.01,2013-01-31 11:59:00,
2013-01-31 06:00:00,6.1,-6.2,29.68,NW,315,4.0,4.5,56,0.00,,---,0.00,VWS V13.01,2013-01-31 12:00:00,
2013-01-31 06:01:00,6.1,-6.2,29.68,NW,315,4.0,4.5,56,0.00,,---,0.00,VWS V13.01,2013-01-31 12:01:00,
2013-01-31 06:02:00,6.1,-6.2,29.68,North,357,5.6,5.6,56,0.00,,---,0.00,VWS V13.01,2013-01-31 12:02:00,
2013-01-31 06:03:00,6.1,-6.2,29.68,NNW,336,8.3,8.3,56,0.00,,---,0.00,VWS V13.01,2013-01-31 12:03:00,
2013-01-31 06:04:00,6.1,-6.2,29.68,North,357,5.6,5.6,56,0.00,,---,0.00,VWS V13.01,2013-01-31 12:04:00,
2013-01-31 06:05:00,6.1,-6.2,29.68,NNW,345,4.0,5.1,56,0.00,,---,0.00,VWS V13.01,2013-01-31 12:05:00,
2013-01-31 06:06:00,6.1,-6.2,29.68,NW,313,4.7,6.0,56,0.00,,---,0.00,VWS V13.01,2013-01-31 12:06:00,
2013-01-31 06:07:00,6.1,-6.2,29.68,NNW,338,4.5,5.1,56,0.00,,---,0.00,VWS V13.01,2013-01-31 12:07:00,
2013-01-31 06:08:00,6.1,-6.2,29.68,NW,315,5.1,5.1,56,0.00,,---,0.00,VWS V13.01,2013-01-31 12:08:00,
2013-01-31 06:09:00,6.1,-6.2,29.68,NNW,338,4.5,5.1,56,0.00,,---,0.00,VWS V13.01,2013-01-31 12:09:00,
2013-01-31 06:10:00,6.1,-6.2,29.68,NNW,331,4.0,5.1,56,0.00,,---,0.00,VWS V13.01,2013-01-31 12:10:00,
2013-01-31 06:11:00,6.1,-6.2,29.68,NNW,329,4.0,4.0,56,0.00,,---,0.00,VWS V13.01,2013-01-31 12:11:00,
2013-01-31 06:12:00,6.1,-6.2,29.68,NW,322,3.6,4.7,56,0.00,,---,0.00,VWS V13.01,2013-01-31 12:12:00,
2013-01-31 06:13:00,6.1,-6.2,29.68,NNW,340,4.7,5.6,56,0.00,,---,0.00,VWS V13.01,2013-01-31 12:13:00,
2013-01-31 06:14:00,6.1,-6.2,29.68,NNW,340,4.7,5.6,56,0.00,,---,0.00,VWS V13.01,2013-01-31 12:14:00,
2013-01-31 06:15:00,6.1,-6.2,29.68,NNE,29,5.1,6.0,56,0.00,,---,0.00,VWS V13.01,2013-01-31 12:15:00,
2013-01-31 06:16:00,6.1,-6.2,29.68,West,281,3.6,6.9,56,0.00,,---,0.00,VWS V13.01,2013-01-31 12:16:00,
2013-01-31 06:17:00,6.1,-6.2,29.68,WNW,301,4.0,5.1,56,0.00,,---,0.00,VWS V13.01,2013-01-31 12:17:00,
2013-01-31 06:18:00,6.1,-6.2,29.68,North,350,4.0,6.0,56,0.00,,---,0.00,VWS V13.01,2013-01-31 12:18:00,
2013-01-31 06:19:00,6.1,-6.2,29.68,North,6,3.6,4.7,56,0.00,,---,0.00,VWS V13.01,2013-01-31 12:19:00,
2013-01-31 06:20:00,6.1,-6.2,29.68,North,350,4.0,6.0,56,0.00,,---,0.00,VWS V13.01,2013-01-31 12:20:00,
2013-01-31 06:21:00,6.1,-6.2,29.68,North,353,4.0,5.1,56,0.00,,---,0.00,VWS V13.01,2013-01-31 12:21:00,
2013-01-31 06:22:00,6.1,-6.2,29.68,West,278,4.0,4.7,56,0.00,,---,0.00,VWS V13.01,2013-01-31 12:22:00,
2013-01-31 06:23:00,6.1,-6.2,29.68,North,350,3.6,4.7,56,0.00,,---,0.00,VWS V13.01,2013-01-31 12:23:00,
2013-01-31 06:24:00,6.1,-6.2,29.68,NW,320,5.1,5.1,56,0.00,,---,0.00,VWS V13.01,2013-01-31 12:24:00,
2013-01-31 06:25:00,6.1,-6.2,29.68,North,350,3.6,4.7,56,0.00,,---,0.00,VWS V13.01,2013-01-31 12:25:00,
2013-01-31 06:26:00,6.1,-6.2,29.68,NNW,331,5.1,5.1,56,0.00,,---,0.00,VWS V13.01,2013-01-31 12:26:00,
2013-01-31 06:27:00,6.1,-6.2,29.68,NNW,328,4.5,5.1,56,0.00,,---,0.00,VWS V13.01,2013-01-31 12:27:00,
2013-01-31 06:28:00,6.1,-6.2,29.68,NNW,346,3.6,5.1,56,0.00,,---,0.00,VWS V13.01,2013-01-31 12:28:00,
2013-01-31 06:29:00,6.1,-6.2,29.68,NNW,346,4.0,4.7,56,0.00,,---,0.00,VWS V13.01,2013-01-31 12:29:00,
2013-01-31 06:30:00,6.1,-6.2,29.68,NNW,346,3.6,5.1,56,0.00,,---,0.00,VWS V13.01,2013-01-31 12:30:00,
2013-01-31 06:31:00,6.1,-6.2,29.68,NW,315,6.5,6.5,56,0.00,,---,0.00,VWS V13.01,2013-01-31 12:31:00,
2013-01-31 06:32:00,6.1,-6.2,29.68,NNE,19,4.7,6.5,56,0.00,,---,0.00,VWS V13.01,2013-01-31 12:32:00,
2013-01-31 06:33:00,6.1,-6.2,29.68,North,9,5.1,6.5,56,0.00,,---,0.00,VWS V13.01,2013-01-31 12:33:00,
2013-01-31 06:34:00,6.1,-6.2,29.68,NNE,18,4.5,6.0,56,0.00,,---,0.00,VWS V13.01,2013-01-31 12:34:00,
2013-01-31 06:35:00,6.1,-6.2,29.68,NE,34,6.0,6.0,56,0.00,,---,0.00,VWS V13.01,2013-01-31 12:35:00,
2013-01-31 06:36:00,6.1,-6.2,29.68,NNE,18,4.5,6.0,56,0.00,,---,0.00,VWS V13.01,2013-01-31 12:36:00,
2013-01-31 06:37:00,6.1,-6.2,29.68,North,357,6.5,6.5,56,0.00,,---,0.00,VWS V13.01,2013-01-31 12:37:00,
2013-01-31 06:38:00,6.1,-6.2,29.68,NNW,337,5.1,7.4,56,0.00,,---,0.00,VWS V13.01,2013-01-31 12:38:00,
2013-01-31 06:39:00,6.1,-6.2,29.68,NNW,343,4.0,5.1,56,0.00,,---,0.00,VWS V13.01,2013-01-31 12:39:00,
2013-01-31 06:40:00,6.1,-6.2,29.68,NNW,343,4.7,4.7,56,0.00,,---,0.00,VWS V13.01,2013-01-31 12:40:00,
2013-01-31 06:41:00,6.1,-6.2,29.68,North,357,8.3,8.3,56,0.00,,---,0.00,VWS V13.01,2013-01-31 12:41:00,
2013-01-31 06:42:00,6.1,-6.2,29.68,NNW,343,4.7,4.7,56,0.00,,---,0.00,VWS V13.01,2013-01-31 12:42:00,
2013-01-31 06:43:00,6.1,-6.2,29.68,North,353,5.6,6.9,56,0.00,,---,0.00,VWS V13.01,2013-01-31 12:43:00,
2013-01-31 06:44:00,6.1,-6.2,29.68,NNW,340,5.1,6.0,56,0.00,,---,0.00,VWS V13.01,2013-01-31 12:44:00,
2013-01-31 06:45:00,6.1,-6.2,29.68,NNW,334,4.7,5.1,56,0.00,,---,0.00,VWS V13.01,2013-01-31 12:45:00,
2013-01-31 06:46:00,6.1,-6.2,29.68,NNW,342,4.7,5.6,56,0.00,,---,0.00,VWS V13.01,2013-01-31 12:46:00,
2013-01-31 06:47:00,6.1,-6.2,29.68,NNW,334,5.1,6.5,56,0.00,,---,0.00,VWS V13.01,2013-01-31 12:47:00,
2013-01-31 06:48:00,6.1,-6.2,29.68,NNW,342,4.7,5.6,56,0.00,,---,0.00,VWS V13.01,2013-01-31 12:48:00,
2013-01-31 06:49:00,6.1,-6.2,29.68,NNW,337,3.1,6.9,56,0.00,,---,0.00,VWS V13.01,2013-01-31 12:49:00,
2013-01-31 06:50:00,6.1,-6.2,29.68,North,357,4.0,5.1,56,0.00,,---,0.00,VWS V13.01,2013-01-31 12:50:00,
2013-01-31 06:51:00,6.1,-6.2,29.68,North,5,4.5,4.7,56,0.00,,---,0.00,VWS V13.01,2013-01-31 12:51:00,
2013-01-31 06:52:00,6.1,-6.2,29.68,North,0,4.0,4.7,56,0.00,,---,0.00,VWS V13.01,2013-01-31 12:52:00,
2013-01-31 06:53:00,6.1,-6.2,29.68,North,0,4.0,4.5,56,0.00,,---,0.00,VWS V13.01,2013-01-31 12:53:00,
2013-01-31 06:54:00,6.1,-6.2,29.68,North,0,4.0,4.7,56,0.00,,---,0.00,VWS V13.01,2013-01-31 12:54:00,
2013-01-31 06:55:00,6.1,-6.2,29.68,NNE,18,4.5,4.7,56,0.00,,---,0.00,VWS V13.01,2013-01-31 12:55:00,
2013-01-31 06:56:00,6.1,-6.2,29.68,NNW,343,4.7,5.6,56,0.00,,---,0.00,VWS V13.01,2013-01-31 12:56:00,
2013-01-31 06:57:00,6.1,-6.2,29.68,North,357,4.5,5.1,56,0.00,,---,0.00,VWS V13.01,2013-01-31 12:57:00,
2013-01-31 06:58:00,6.1,-6.2,29.68,North,357,0.0,4.5,56,0.00,,---,0.00,VWS V13.01,2013-01-31 12:58:00,
2013-01-31 06:59:00,6.1,-6.2,29.68,North,7,6.0,6.5,56,0.00,,---,0.00,VWS V13.01,2013-01-31 12:59:00,
2013-01-31 07:00:00,6.1,-6.2,29.68,North,357,0.0,4.5,56,0.00,,---,0.00,VWS V13.01,2013-01-31 13:00:00,
2013-01-31 07:01:00,6.1,-6.2,29.68,NNW,348,4.7,6.5,56,0.00,,---,0.00,VWS V13.01,2013-01-31 13:01:00,
2013-01-31 07:02:00,6.1,-6.2,29.68,NNW,330,4.7,5.6,56,0.00,,---,0.00,VWS V13.01,2013-01-31 13:02:00,
2013-01-31 07:03:00,6.1,-6.2,29.68,NNW,345,6.0,6.0,56,0.00,,---,0.00,VWS V13.01,2013-01-31 13:03:00,
2013-01-31 07:04:00,6.1,-6.2,29.68,North,2,5.6,6.0,56,0.00,,---,0.00,VWS V13.01,2013-01-31 13:04:00,
2013-01-31 07:05:00,6.1,-6.2,29.68,NNW,345,6.0,6.0,56,0.00,,---,0.00,VWS V13.01,2013-01-31 13:05:00,
2013-01-31 07:06:00,6.1,-6.2,29.68,NNW,334,4.0,5.1,56,0.00,,---,0.00,VWS V13.01,2013-01-31 13:06:00,
2013-01-31 07:07:00,6.1,-6.2,29.68,NNW,339,3.1,4.0,56,0.00,,---,0.00,VWS V13.01,2013-01-31 13:07:00,
2013-01-31 07:08:00,6.1,-6.2,29.68,East,86,5.6,5.6,56,0.00,,---,0.00,VWS V13.01,2013-01-31 13:08:00,
2013-01-31 07:09:00,6.1,-6.2,29.71,NNW,334,4.7,5.6,56,0.00,,---,0.00,VWS V13.01,2013-01-31 13:09:00,
2013-01-31 07:10:00,6.1,-6.2,29.68,East,86,5.6,5.6,56,0.00,,---,0.00,VWS V13.01,2013-01-31 13:10:00,
2013-01-31 07:11:00,6.1,-6.2,29.71,North,1,5.1,6.5,56,0.00,,---,0.00,VWS V13.01,2013-01-31 13:11:00,
2013-01-31 07:12:00,6.1,-6.2,29.71,NNE,17,6.0,7.4,56,0.00,,---,0.00,VWS V13.01,2013-01-31 13:12:00,
2013-01-31 07:13:00,6.1,-6.2,29.71,NNW,343,6.5,6.5,56,0.00,,---,0.00,VWS V13.01,2013-01-31 13:13:00,
2013-01-31 07:14:00,6.1,-6.2,29.71,NNW,345,5.6,6.5,56,0.00,,---,0.00,VWS V13.01,2013-01-31 13:14:00,
2013-01-31 07:15:00,6.1,-6.2,29.71,NNW,343,6.5,6.5,56,0.00,,---,0.00,VWS V13.01,2013-01-31 13:15:00,
2013-01-31 07:16:00,6.1,-6.2,29.71,NW,325,6.0,6.0,56,0.00,,---,0.00,VWS V13.01,2013-01-31 13:16:00,
2013-01-31 07:17:00,6.1,-6.2,29.71,NE,36,4.0,6.0,56,0.00,,---,0.00,VWS V13.01,2013-01-31 13:17:00,
2013-01-31 07:18:00,6.1,-6.2,29.71,NNW,331,6.5,7.8,56,0.00,,---,0.00,VWS V13.01,2013-01-31 13:18:00,
2013-01-31 07:19:00,6.1,-6.2,29.71,ENE,65,5.6,6.5,56,0.00,,---,0.00,VWS V13.01,2013-01-31 13:19:00,
2013-01-31 07:20:00,6.1,-6.2,29.71,NNW,341,7.8,7.8,56,0.00,,---,0.00,VWS V13.01,2013-01-31 13:20:00,
2013-01-31 07:21:00,6.1,-6.2,29.71,ENE,65,5.6,6.5,56,0.00,,---,0.00,VWS V13.01,2013-01-31 13:21:00,
2013-01-31 07:22:00,6.1,-6.2,29.71,NNW,341,4.7,7.4,56,0.00,,---,0.00,VWS V13.01,2013-01-31 13:22:00,
2013-01-31 07:23:00,6.1,-6.2,29.71,NW,309,6.0,6.5,56,0.00,,---,0.00,VWS V13.01,2013-01-31 13:23:00,
2013-01-31 07:24:00,6.1,-6.2,29.71,WNW,293,5.6,6.9,56,0.00,,---,0.00,VWS V13.01,2013-01-31 13:24:00,
2013-01-31 07:25:00,6.1,-6.2,29.71,NW,319,4.7,5.6,56,0.00,,---,0.00,VWS V13.01,2013-01-31 13:25:00,
2013-01-31 07:26:00,6.1,-6.2,29.71,WNW,293,5.6,6.9,56,0.00,,---,0.00,VWS V13.01,2013-01-31 13:26:00,
2013-01-31 07:27:00,6.1,-6.2,29.71,NNW,348,4.7,6.0,56,0.00,,---,0.00,VWS V13.01,2013-01-31 13:27:00,
2013-01-31 07:28:00,6.1,-6.2,29.71,NNW,343,4.7,6.5,56,0.00,,---,0.00,VWS V13.01,2013-01-31 13:28:00,
2013-01-31 07:29:00,6.1,-6.2,29.71,North,349,4.5,5.6,56,0.00,,---,0.00,VWS V13.01,2013-01-31 13:29:00,
2013-01-31 07:30:00,6.1,-6.2,29.71,North,3,4.7,4.7,56,0.00,,---,0.00,VWS V13.01,2013-01-31 13:30:00,
2013-01-31 07:31:00,6.1,-6.2,29.71,NE,46,4.7,6.5,56,0.00,,---,0.00,VWS V13.01,2013-01-31 13:31:00,
2013-01-31 07:32:00,6.1,-6.2,29.71,North,3,4.7,4.7,56,0.00,,---,0.00,VWS V13.01,2013-01-31 13:32:00,
2013-01-31 07:33:00,6.1,-6.2,29.71,NNW,340,5.6,6.0,56,0.00,,---,0.00,VWS V13.01,2013-01-31 13:33:00,
2013-01-31 07:34:00,6.1,-6.2,29.71,NW,325,4.0,5.6,56,0.00,,---,0.00,VWS V13.01,2013-01-31 13:34:00,
2013-01-31 07:35:00,6.1,-6.2,29.71,NW,320,5.1,5.6,56,0.00,,---,0.00,VWS V13.01,2013-01-31 13:35:00,
2013-01-31 07:36:00,6.1,-6.2,29.71,North,357,6.5,6.5,56,0.00,,---,0.00,VWS V13.01,2013-01-31 13:36:00,
2013-01-31 07:37:00,6.1,-6.2,29.71,NW,320,5.1,5.6,56,0.00,,---,0.00,VWS V13.01,2013-01-31 13:37:00,
2013-01-31 07:38:00,6.1,-6.2,29.71,NNW,344,3.6,4.5,56,0.00,,---,0.00,VWS V13.01,2013-01-31 13:38:00,
2013-01-31 07:39:00,5.9,-6.4,29.71,NNW,344,4.7,5.1,56,0.00,,---,0.00,VWS V13.01,2013-01-31 13:39:00,
2013-01-31 07:40:00,6.1,-6.2,29.71,NNW,330,6.5,6.5,56,0.00,,---,0.00,VWS V13.01,2013-01-31 13:40:00,
2013-01-31 07:41:00,5.9,-6.4,29.71,East,83,8.3,8.3,56,0.00,,---,0.00,VWS V13.01,2013-01-31 13:41:00,
2013-01-31 07:42:00,5.9,-6.4,29.71,NW,319,4.5,8.3,56,0.00,,---,0.00,VWS V13.01,2013-01-31 13:42:00,
2013-01-31 07:43:00,5.9,-6.4,29.71,East,83,8.3,8.3,56,0.00,,---,0.00,VWS V13.01,2013-01-31 13:43:00,
2013-01-31 07:44:00,6.1,-6.2,29.71,NNW,338,5.1,5.1,56,0.00,,---,0.00,VWS V13.01,2013-01-31 13:44:00,
2013-01-31 07:45:00,6.1,-6.2,29.71,NNW,341,4.0,5.1,56,0.00,,---,0.00,VWS V13.01,2013-01-31 13:45:00,
2013-01-31 07:46:00,6.1,-6.2,29.71,NNE,15,4.0,5.1,56,0.00,,---,0.00,VWS V13.01,2013-01-31 13:46:00,
2013-01-31 07:47:00,6.1,-6.2,29.71,NNW,330,4.7,5.6,56,0.00,,---,0.00,VWS V13.01,2013-01-31 13:47:00,
2013-01-31 07:48:00,6.1,-6.2,29.71,NNE,15,4.0,5.1,56,0.00,,---,0.00,VWS V13.01,2013-01-31 13:48:00,
2013-01-31 07:49:00,6.1,-6.2,29.71,SW,231,4.0,4.7,56,0.00,,---,0.00,VWS V13.01,2013-01-31 13:49:00,
2013-01-31 07:50:00,6.1,-6.2,29.71,NNW,341,4.7,5.6,56,0.00,,---,0.00,VWS V13.01,2013-01-31 13:50:00,
2013-01-31 07:51:00,6.1,-6.2,29.71,NW,318,3.6,4.7,56,0.00,,---,0.00,VWS V13.01,2013-01-31 13:51:00,
2013-01-31 07:52:00,6.1,-6.2,29.71,NW,312,4.5,4.5,56,0.00,,---,0.00,VWS V13.01,2013-01-31 13:52:00,
2013-01-31 07:53:00,6.1,-6.2,29.71,NNE,22,3.6,4.7,56,0.00,,---,0.00,VWS V13.01,2013-01-31 13:53:00,
2013-01-31 07:54:00,6.1,-6.2,29.71,NW,312,4.5,4.5,56,0.00,,---,0.00,VWS V13.01,2013-01-31 13:54:00,
2013-01-31 07:55:00,6.1,-6.2,29.71,NNW,346,4.0,4.7,56,0.00,,---,0.00,VWS V13.01,2013-01-31 13:55:00,
2013-01-31 07:56:00,6.1,-6.2,29.71,North,353,4.5,4.7,56,0.00,,---,0.00,VWS V13.01,2013-01-31 13:56:00,
2013-01-31 07:57:00,6.1,-6.2,29.71,North,353,5.1,6.0,56,0.00,,---,0.00,VWS V13.01,2013-01-31 13:57:00,
2013-01-31 07:58:00,6.1,-6.2,29.71,SE,124,5.6,5.6,56,0.00,,---,0.00,VWS V13.01,2013-01-31 13:58:00,
2013-01-31 07:59:00,6.1,-6.2,29.71,North,353,5.1,6.0,56,0.00,,---,0.00,VWS V13.01,2013-01-31 13:59:00,
2013-01-31 08:00:00,6.1,-6.2,29.71,North,353,5.1,5.6,56,0.00,,---,0.00,VWS V13.01,2013-01-31 14:00:00,
2013-01-31 08:01:00,6.1,-6.2,29.71,NW,305,4.5,5.1,56,0.00,,---,0.00,VWS V13.01,2013-01-31 14:01:00,
2013-01-31 08:02:00,6.1,-6.2,29.71,NNW,338,3.1,4.7,56,0.00,,---,0.00,VWS V13.01,2013-01-31 14:02:00,
2013-01-31 08:03:00,6.1,-6.2,29.71,NNW,328,6.5,7.8,56,0.00,,---,0.00,VWS V13.01,2013-01-31 14:03:00,
2013-01-31 08:04:00,6.1,-6.2,29.71,NNE,19,7.8,8.7,56,0.00,,---,0.00,VWS V13.01,2013-01-31 14:04:00,
2013-01-31 08:05:00,6.1,-6.2,29.71,NNW,328,6.5,7.8,56,0.00,,---,0.00,VWS V13.01,2013-01-31 14:05:00,
2013-01-31 08:06:00,6.1,-6.2,29.71,NNE,20,5.1,6.0,56,0.00,,---,0.00,VWS V13.01,2013-01-31 14:06:00,
2013-01-31 08:07:00,6.1,-6.2,29.71,NNW,339,7.4,7.4,56,0.00,,---,0.00,VWS V13.01,2013-01-31 14:07:00,
2013-01-31 08:08:00,6.1,-6.2,29.71,NNW,328,5.6,7.4,56,0.00,,---,0.00,VWS V13.01,2013-01-31 14:08:00,
2013-01-31 08:09:00,6.1,-6.2,29.74,North,6,6.9,9.4,56,0.00,,---,0.00,VWS V13.01,2013-01-31 14:09:00,
2013-01-31 08:10:00,6.1,-6.2,29.71,NNW,328,5.6,7.4,56,0.00,,---,0.00,VWS V13.01,2013-01-31 14:10:00,
2013-01-31 08:11:00,6.1,-6.2,29.74,NNW,334,4.5,5.1,56,0.00,,---,0.00,VWS V13.01,2013-01-31 14:11:00,
2013-01-31 08:12:00,6.1,-6.2,29.74,NNE,30,5.6,5.6,56,0.00,,---,0.00,VWS V13.01,2013-01-31 14:12:00,
2013-01-31 08:13:00,6.1,-6.2,29.74,NNW,333,6.5,7.4,56,0.00,,---,0.00,VWS V13.01,2013-01-31 14:13:00,
2013-01-31 08:14:00,6.1,-6.2,29.74,North,353,6.5,7.4,56,0.00,,---,0.00,VWS V13.01,2013-01-31 14:14:00,
2013-01-31 08:15:00,6.1,-6.2,29.74,North,1,6.0,6.5,56,0.00,,---,0.00,VWS V13.01,2013-01-31 14:15:00,
2013-01-31 08:16:00,6.1,-6.2,29.74,North,353,6.5,7.4,56,0.00,,---,0.00,VWS V13.01,2013-01-31 14:16:00,
2013-01-31 08:17:00,6.1,-6.2,29.74,North,350,4.7,7.8,56,0.00,,---,0.00,VWS V13.01,2013-01-31 14:17:00,
2013-01-31 08:18:00,6.1,-6.2,29.74,NW,321,5.1,5.1,56,0.00,,---,0.00,VWS V13.01,2013-01-31 14:18:00,
2013-01-31 08:19:00,6.1,-6.2,29.74,NNW,333,6.0,6.5,56,0.00,,---,0.00,VWS V13.01,2013-01-31 14:19:00,
2013-01-31 08:20:00,6.3,-6.1,29.74,North,357,6.5,6.5,56,0.00,,---,0.00,VWS V13.01,2013-01-31 14:20:00,
2013-01-31 08:21:00,6.3,-6.1,29.74,NW,325,4.7,6.5,56,0.00,,---,0.00,VWS V13.01,2013-01-31 14:21:00,
2013-01-31 08:22:00,6.3,-6.1,29.74,North,357,6.5,6.5,56,0.00,,---,0.00,VWS V13.01,2013-01-31 14:22:00,
2013-01-31 08:23:00,6.3,-6.1,29.74,NW,313,3.1,5.6,56,0.00,,---,0.00,VWS V13.01,2013-01-31 14:23:00,
2013-01-31 08:24:00,6.3,-6.1,29.74,North,2,5.1,5.6,56,0.00,,---,0.00,VWS V13.01,2013-01-31 14:24:00,
2013-01-31 08:25:00,6.3,-6.1,29.74,NNW,341,5.6,6.0,56,0.00,,---,0.00,VWS V13.01,2013-01-31 14:25:00,
2013-01-31 08:26:00,6.3,-6.1,29.74,NNW,328,4.5,5.6,56,0.00,,---,0.00,VWS V13.01,2013-01-31 14:26:00,
2013-01-31 08:27:00,6.3,-6.1,29.74,NNW,341,5.6,6.0,56,0.00,,---,0.00,VWS V13.01,2013-01-31 14:27:00,
2013-01-31 08:28:00,6.3,-6.1,29.74,NW,325,5.6,6.0,56,0.00,,---,0.00,VWS V13.01,2013-01-31 14:28:00,
2013-01-31 08:29:00,6.3,-6.1,29.74,NNW,329,4.5,6.5,56,0.00,,---,0.00,VWS V13.01,2013-01-31 14:29:00,
2013-01-31 08:30:00,6.3,-6.1,29.74,NNW,341,5.6,5.6,56,0.00,,---,0.00,VWS V13.01,2013-01-31 14:30:00,
2013-01-31 08:31:00,6.3,-6.1,29.74,NNW,327,3.1,5.6,56,0.00,,---,0.00,VWS V13.01,2013-01-31 14:31:00,
2013-01-31 08:32:00,6.3,-6.1,29.74,NW,324,4.0,5.6,56,0.00,,---,0.00,VWS V13.01,2013-01-31 14:32:00,
2013-01-31 08:33:00,6.3,-6.1,29.74,NNW,327,3.1,5.6,56,0.00,,---,0.00,VWS V13.01,2013-01-31 14:33:00,
2013-01-31 08:34:00,6.3,-6.1,29.74,NNW,348,4.0,6.9,56,0.00,,---,0.00,VWS V13.01,2013-01-31 14:34:00,
2013-01-31 08:35:00,6.3,-6.1,29.74,NW,319,4.0,5.1,56,0.00,,---,0.00,VWS V13.01,2013-01-31 14:35:00,
2013-01-31 08:36:00,6.3,-6.1,29.74,North,349,4.7,4.7,56,0.00,,---,0.00,VWS V13.01,2013-01-31 14:36:00,
2013-01-31 08:37:00,6.3,-6.1,29.74,ESE,113,8.3,8.3,56,0.00,,---,0.00,VWS V13.01,2013-01-31 14:37:00,
2013-01-31 08:38:00,6.3,-6.1,29.74,NNW,330,5.6,8.3,56,0.00,,---,0.00,VWS V13.01,2013-01-31 14:38:00,
2013-01-31 08:39:00,6.3,-6.1,29.74,ESE,113,8.3,8.3,56,0.00,,---,0.00,VWS V13.01,2013-01-31 14:39:00,
2013-01-31 08:40:00,6.3,-6.1,29.74,NNW,341,4.7,6.0,56,0.00,,---,0.00,VWS V13.01,2013-01-31 14:40:00,
2013-01-31 08:41:00,6.3,-6.1,29.74,North,0,7.8,7.8,56,0.00,,---,0.00,VWS V13.01,2013-01-31 14:41:00,
2013-01-31 08:42:00,6.3,-6.1,29.74,NW,319,7.4,8.9,56,0.00,,---,0.00,VWS V13.01,2013-01-31 14:42:00,
2013-01-31 08:43:00,6.3,-6.1,29.74,NW,307,6.5,7.4,56,0.00,,---,0.00,VWS V13.01,2013-01-31 14:43:00,
2013-01-31 08:44:00,6.3,-6.1,29.74,NW,319,7.4,8.9,56,0.00,,---,0.00,VWS V13.01,2013-01-31 14:44:00,
2013-01-31 08:45:00,6.3,-6.1,29.74,NW,326,5.6,8.7,56,0.00,,---,0.00,VWS V13.01,2013-01-31 14:45:00,
2013-01-31 08:46:00,6.3,-6.1,29.74,NNW,337,8.7,8.7,56,0.00,,---,0.00,VWS V13.01,2013-01-31 14:46:00,
2013-01-31 08:47:00,6.3,-6.1,29.74,NNW,336,6.0,8.7,56,0.00,,---,0.00,VWS V13.01,2013-01-31 14:47:00,
2013-01-31 08:48:00,6.3,-6.1,29.74,NNW,332,6.9,6.9,56,0.00,,---,0.00,VWS V13.01,2013-01-31 14:48:00,
2013-01-31 08:49:00,6.3,-6.1,29.74,NNW,345,4.7,6.9,56,0.00,,---,0.00,VWS V13.01,2013-01-31 14:49:00,
2013-01-31 08:50:00,6.3,-6.1,29.74,NNW,332,6.9,6.9,56,0.00,,---,0.00,VWS V13.01,2013-01-31 14:50:00,
2013-01-31 08:51:00,6.3,-6.1,29.74,North,353,7.8,7.8,56,0.00,,---,0.00,VWS V13.01,2013-01-31 14:51:00,
2013-01-31 08:52:00,6.3,-6.1,29.74,NNW,329,8.3,10.7,56,0.00,,---,0.00,VWS V13.01,2013-01-31 14:52:00,
2013-01-31 08:53:00,6.1,-6.2,29.74,North,3,5.6,8.3,56,0.00,,---,0.00,VWS V13.01,2013-01-31 14:53:00,
2013-01-31 08:54:00,6.1,-6.2,29.74,WNW,291,5.6,7.4,56,0.00,,---,0.00,VWS V13.01,2013-01-31 14:54:00,
2013-01-31 08:55:00,6.1,-6.2,29.74,North,3,5.6,8.3,56,0.00,,---,0.00,VWS V13.01,2013-01-31 14:55:00,
2013-01-31 08:56:00,6.1,-6.2,29.74,NW,310,6.0,6.5,56,0.00,,---,0.00,VWS V13.01,2013-01-31 14:56:00,
2013-01-31 08:57:00,6.1,-6.2,29.74,NNW,328,5.1,8.7,56,0.00,,---,0.00,VWS V13.01,2013-01-31 14:57:00,
2013-01-31 08:58:00,6.1,-6.2,29.74,NNW,337,5.6,6.5,56,0.00,,---,0.00,VWS V13.01,2013-01-31 14:58:00,
2013-01-31 08:59:00,6.1,-6.2,29.74,NNW,336,4.5,6.5,56,0.00,,---,0.00,VWS V13.01,2013-01-31 14:59:00,
2013-01-31 09:00:00,6.1,-6.2,29.74,WNW,292,8.3,8.9,56,0.00,,---,0.00,VWS V13.01,2013-01-31 15:00:00,
2013-01-31 09:01:00,6.1,-6.2,29.74,NNW,336,4.5,6.5,56,0.00,,---,0.00,VWS V13.01,2013-01-31 15:01:00,
2013-01-31 09:02:00,6.1,-6.2,29.74,NNW,329,5.1,8.7,56,0.00,,---,0.00,VWS V13.01,2013-01-31 15:02:00,
2013-01-31 09:03:00,6.1,-6.2,29.74,NW,309,6.5,6.5,56,0.00,,---,0.00,VWS V13.01,2013-01-31 15:03:00,
2013-01-31 09:04:00,6.1,-6.2,29.74,South,174,8.9,8.9,56,0.00,,---,0.00,VWS V13.01,2013-01-31 15:04:00,
2013-01-31 09:05:00,6.1,-6.2,29.74,West,272,6.0,8.9,56,0.00,,---,0.00,VWS V13.01,2013-01-31 15:05:00,
2013-01-31 09:06:00,6.1,-6.2,29.74,South,174,8.9,8.9,56,0.00,,---,0.00,VWS V13.01,2013-01-31 15:06:00,
2013-01-31 09:07:00,6.1,-6.2,29.74,NNW,338,6.0,6.9,56,0.00,,---,0.00,VWS V13.01,2013-01-31 15:07:00,
2013-01-31 09:08:00,6.3,-6.1,29.74,NNW,339,6.9,6.9,56,0.00,,---,0.00,VWS V13.01,2013-01-31 15:08:00,
2013-01-31 09:09:00,6.3,-6.1,29.77,NNW,333,5.1,8.7,56,0.00,,---,0.00,VWS V13.01,2013-01-31 15:09:00,
2013-01-31 09:10:00,6.3,-6.1,29.77,North,353,7.4,11.6,56,0.00,,---,0.00,VWS V13.01,2013-01-31 15:10:00,
2013-01-31 09:11:00,6.3,-6.1,29.77,NNW,333,5.1,8.7,56,0.00,,---,0.00,VWS V13.01,2013-01-31 15:11:00,
2013-01-31 09:12:00,6.3,-6.1,29.77,NW,312,5.1,6.9,56,0.00,,---,0.00,VWS V13.01,2013-01-31 15:12:00,
2013-01-31 09:13:00,6.3,-6.1,29.77,NW,304,8.9,8.9,56,0.00,,---,0.00,VWS V13.01,2013-01-31 15:13:00,
2013-01-31 09:14:00,6.1,-6.2,29.77,North,353,7.4,8.9,56,0.00,,---,0.00,VWS V13.01,2013-01-31 15:14:00,
2013-01-31 09:15:00,6.3,-6.1,29.77,NW,314,6.9,7.4,56,0.00,,---,0.00,VWS V13.01,2013-01-31 15:15:00,
2013-01-31 09:16:00,6.3,-6.1,29.77,NNW,341,7.4,7.8,56,0.00,,---,0.00,VWS V13.01,2013-01-31 15:16:00,
2013-01-31 09:17:00,6.3,-6.1,29.77,NW,314,6.9,7.4,56,0.00,,---,0.00,VWS V13.01,2013-01-31 15:17:00,
2013-01-31 09:18:00,6.1,-6.2,29.77,North,4,6.9,8.9,56,0.00,,---,0.00,VWS V13.01,2013-01-31 15:18:00,
2013-01-31 09:19:00,6.1,-6.2,29.77,NNW,345,6.5,7.4,56,0.00,,---,0.00,VWS V13.01,2013-01-31 15:19:00,
2013-01-31 09:20:00,6.1,-6.2,29.77,NNW,345,6.0,8.9,56,0.00,,---,0.00,VWS V13.01,2013-01-31 15:20:00,
2013-01-31 09:21:00,6.3,-6.1,29.77,NW,321,4.7,6.5,56,0.00,,---,0.00,VWS V13.01,2013-01-31 15:21:00,
2013-01-31 09:22:00,6.1,-6.2,29.77,NNW,345,6.0,8.9,56,0.00,,---,0.00,VWS V13.01,2013-01-31 15:22:00,
2013-01-31 09:23:00,6.1,-6.2,29.77,NNW,337,4.0,8.3,56,0.00,,---,0.00,VWS V13.01,2013-01-31 15:23:00,
2013-01-31 09:24:00,6.1,-6.2,29.77,North,5,5.1,7.8,56,0.00,,---,0.00,VWS V13.01,2013-01-31 15:24:00,
2013-01-31 09:25:00,6.1,-6.2,29.77,NW,320,6.0,8.7,56,0.00,,---,0.00,VWS V13.01,2013-01-31 15:25:00,
2013-01-31 09:26:00,6.1,-6.2,29.77,NNW,329,7.8,7.8,56,0.00,,---,0.00,VWS V13.01,2013-01-31 15:26:00,
2013-01-31 09:27:00,6.1,-6.2,29.77,NNW,332,8.9,8.9,56,0.00,,---,0.00,VWS V13.01,2013-01-31 15:27:00,
2013-01-31 09:28:00,6.1,-6.2,29.77,NNW,329,7.8,7.8,56,0.00,,---,0.00,VWS V13.01,2013-01-31 15:28:00,
2013-01-31 09:29:00,6.1,-6.2,29.77,NNW,339,6.9,7.8,56,0.00,,---,0.00,VWS V13.01,2013-01-31 15:29:00,
2013-01-31 09:30:00,6.1,-6.2,29.77,West,270,6.0,6.9,56,0.00,,---,0.00,VWS V13.01,2013-01-31 15:30:00,
2013-01-31 09:32:00,6.1,-6.2,29.77,North,353,4.7,8.3,56,0.00,,---,0.00,VWS V13.01,2013-01-31 15:32:00,
2013-01-31 09:33:00,6.1,-6.2,29.77,North,353,8.3,11.2,56,0.00,,---,0.00,VWS V13.01,2013-01-31 15:33:00,
2013-01-31 09:34:00,6.1,-6.2,29.77,NW,324,6.5,10.3,56,0.00,,---,0.00,VWS V13.01,2013-01-31 15:34:00,
2013-01-31 09:35:00,5.9,-6.4,29.77,North,353,6.0,7.8,56,0.00,,---,0.00,VWS V13.01,2013-01-31 15:35:00,
2013-01-31 09:36:00,5.9,-6.4,29.77,NNE,21,7.4,7.4,56,0.00,,---,0.00,VWS V13.01,2013-01-31 15:36:00,
2013-01-31 09:37:00,5.9,-6.4,29.77,NNW,337,8.7,8.9,56,0.00,,---,0.00,VWS V13.01,2013-01-31 15:37:00,
2013-01-31 09:38:00,5.9,-6.4,29.77,NNE,21,7.4,7.4,56,0.00,,---,0.00,VWS V13.01,2013-01-31 15:38:00,
2013-01-31 09:39:00,5.9,-6.4,29.77,North,357,4.7,6.5,56,0.00,,---,0.00,VWS V13.01,2013-01-31 15:39:00,
2013-01-31 09:40:00,5.9,-6.4,29.77,NW,324,4.7,8.7,56,0.00,,---,0.00,VWS V13.01,2013-01-31 15:40:00,
2013-01-31 09:41:00,5.9,-6.4,29.77,NW,325,6.5,6.5,56,0.00,,---,0.00,VWS V13.01,2013-01-31 15:41:00,
2013-01-31 09:42:00,6.1,-6.2,29.77,East,90,8.7,8.7,56,0.00,,---,0.00,VWS V13.01,2013-01-31 15:42:00,
2013-01-31 09:43:00,5.9,-6.4,29.77,NW,325,6.5,6.5,56,0.00,,---,0.00,VWS V13.01,2013-01-31 15:43:00,
2013-01-31 09:44:00,5.9,-6.4,29.77,NNW,344,6.9,8.3,56,0.00,,---,0.00,VWS V13.01,2013-01-31 15:44:00,
2013-01-31 09:45:00,6.1,-6.2,29.77,ESE,119,6.0,7.8,56,0.00,,---,0.00,VWS V13.01,2013-01-31 15:45:00,
2013-01-31 09:46:00,5.9,-6.4,29.77,North,353,7.4,8.9,56,0.00,,---,0.00,VWS V13.01,2013-01-31 15:46:00,
2013-01-31 09:47:00,5.9,-6.4,29.77,NW,312,5.6,7.4,56,0.00,,---,0.00,VWS V13.01,2013-01-31 15:47:00,
2013-01-31 09:48:00,6.1,-6.2,29.77,NNW,334,6.0,6.0,56,0.00,,---,0.00,VWS V13.01,2013-01-31 15:48:00,
2013-01-31 09:49:00,5.9,-6.4,29.77,NW,312,5.6,7.4,56,0.00,,---,0.00,VWS V13.01,2013-01-31 15:49:00,
2013-01-31 09:50:00,6.1,-6.2,29.77,West,267,4.0,5.1,56,0.00,,---,0.00,VWS V13.01,2013-01-31 15:50:00,
2013-01-31 09:51:00,6.1,-6.2,29.77,SW,214,3.6,5.1,56,0.00,,---,0.00,VWS V13.01,2013-01-31 15:51:00,
2013-01-31 09:52:00,6.1,-6.2,29.77,NNW,334,4.0,4.5,56,0.00,,---,0.00,VWS V13.01,2013-01-31 15:52:00,
2013-01-31 09:53:00,6.1,-6.2,29.77,East,79,5.6,5.6,56,0.00,,---,0.00,VWS V13.01,2013-01-31 15:53:00,
2013-01-31 09:54:00,6.1,-6.2,29.77,NNW,334,4.0,4.5,56,0.00,,---,0.00,VWS V13.01,2013-01-31 15:54:00,
2013-01-31 09:55:00,6.1,-6.2,29.80,NW,307,5.6,5.6,56,0.00,,---,0.00,VWS V13.01,2013-01-31 15:55:00,
2013-01-31 09:56:00,6.3,-6.1,29.80,North,353,5.6,6.5,56,0.00,,---,0.00,VWS V13.01,2013-01-31 15:56:00,
2013-01-31 09:57:00,6.3,-6.1,29.80,NNW,331,4.5,6.5,56,0.00,,---,0.00,VWS V13.01,2013-01-31 15:57:00,
2013-01-31 09:58:00,6.3,-6.1,29.80,ENE,61,5.1,6.0,56,0.00,,---,0.00,VWS V13.01,2013-01-31 15:58:00,
2013-01-31 09:59:00,6.3,-6.1,29.80,NNW,331,4.5,6.5,56,0.00,,---,0.00,VWS V13.01,2013-01-31 15:59:00,
2013-01-31 10:00:00,6.3,-6.1,29.80,North,357,6.9,6.9,56,0.00,,---,0.00,VWS V13.01,2013-01-31 16:00:00,
2013-01-31 10:01:00,6.3,-6.1,29.80,NNW,348,6.5,6.9,56,0.00,,---,0.00,VWS V13.01,2013-01-31 16:01:00,
2013-01-31 10:02:00,6.3,-6.1,29.80,North,357,8.3,8.3,56,0.00,,---,0.00,VWS V13.01,2013-01-31 16:02:00,
2013-01-31 10:03:00,6.3,-6.1,29.80,WNW,302,4.7,9.4,56,0.00,,---,0.00,VWS V13.01,2013-01-31 16:03:00,
2013-01-31 10:04:00,6.3,-6.1,29.80,North,353,6.0,8.3,56,0.00,,---,0.00,VWS V13.01,2013-01-31 16:04:00,
2013-01-31 10:05:00,6.3,-6.1,29.80,WNW,302,4.7,9.4,56,0.00,,---,0.00,VWS V13.01,2013-01-31 16:05:00,
2013-01-31 10:06:00,6.3,-6.1,29.80,NW,322,6.9,8.7,56,0.00,,---,0.00,VWS V13.01,2013-01-31 16:06:00,
2013-01-31 10:07:00,6.3,-6.1,29.80,NW,315,6.0,6.9,56,0.00,,---,0.00,VWS V13.01,2013-01-31 16:07:00,
2013-01-31 10:08:00,6.3,-6.1,29.80,WNW,303,4.0,6.0,56,0.00,,---,0.00,VWS V13.01,2013-01-31 16:08:00,
2013-01-31 10:09:00,6.3,-6.1,29.80,North,357,7.4,7.4,56,0.00,,---,0.00,VWS V13.01,2013-01-31 16:09:00,
2013-01-31 10:10:00,6.3,-6.1,29.80,WNW,303,4.0,6.0,56,0.00,,---,0.00,VWS V13.01,2013-01-31 16:10:00,
2013-01-31 10:11:00,6.3,-6.1,29.80,NNW,336,5.1,7.4,56,0.00,,---,0.00,VWS V13.01,2013-01-31 16:11:00,
2013-01-31 10:12:00,6.3,-6.1,29.80,NE,40,4.0,6.5,56,0.00,,---,0.00,VWS V13.01,2013-01-31 16:12:00,
2013-01-31 10:13:00,6.3,-6.1,29.80,NNE,13,6.0,6.0,56,0.00,,---,0.00,VWS V13.01,2013-01-31 16:13:00,
2013-01-31 10:14:00,6.3,-6.1,29.80,NNE,12,6.5,6.5,56,0.00,,---,0.00,VWS V13.01,2013-01-31 16:14:00,
2013-01-31 10:15:00,6.3,-6.1,29.80,NNW,345,5.1,8.3,56,0.00,,---,0.00,VWS V13.01,2013-01-31 16:15:00,
2013-01-31 10:16:00,6.3,-6.1,29.80,NNE,12,6.5,6.5,56,0.00,,---,0.00,VWS V13.01,2013-01-31 16:16:00,
2013-01-31 10:17:00,6.3,-6.1,29.80,North,2,6.0,6.0,56,0.00,,---,0.00,VWS V13.01,2013-01-31 16:17:00,
2013-01-31 10:18:00,6.3,-6.1,29.80,North,4,4.0,6.0,56,0.00,,---,0.00,VWS V13.01,2013-01-31 16:18:00,
2013-01-31 10:19:00,6.3,-6.1,29.80,NW,321,4.5,5.6,56,0.00,,---,0.00,VWS V13.01,2013-01-31 16:19:00,
2013-01-31 10:20:00,6.3,-6.1,29.80,NNW,335,6.5,6.5,56,0.00,,---,0.00,VWS V13.01,2013-01-31 16:20:00,
2013-01-31 10:21:00,6.3,-6.1,29.80,NW,321,4.5,5.6,56,0.00,,---,0.00,VWS V13.01,2013-01-31 16:21:00,
2013-01-31 10:22:00,6.3,-6.1,29.80,North,353,7.4,7.4,56,0.00,,---,0.00,VWS V13.01,2013-01-31 16:22:00,
2013-01-31 10:23:00,6.4,-5.9,29.80,NNW,346,6.9,7.4,56,0.00,,---,0.00,VWS V13.01,2013-01-31 16:23:00,
2013-01-31 10:24:00,6.4,-5.9,29.80,NNW,328,4.5,7.4,56,0.00,,---,0.00,VWS V13.01,2013-01-31 16:24:00,
2013-01-31 10:25:00,6.4,-5.9,29.80,North,0,5.1,6.0,56,0.00,,---,0.00,VWS V13.01,2013-01-31 16:25:00,
2013-01-31 10:26:00,6.4,-5.9,29.80,NNE,12,6.5,8.3,56,0.00,,---,0.00,VWS V13.01,2013-01-31 16:26:00,
2013-01-31 10:27:00,6.4,-5.9,29.80,North,0,5.1,6.0,56,0.00,,---,0.00,VWS V13.01,2013-01-31 16:27:00,
2013-01-31 10:28:00,6.3,-6.1,29.80,NW,307,5.6,7.8,56,0.00,,---,0.00,VWS V13.01,2013-01-31 16:28:00,
2013-01-31 10:29:00,6.3,-6.1,29.80,NNW,328,7.4,7.8,56,0.00,,---,0.00,VWS V13.01,2013-01-31 16:29:00,
2013-01-31 10:30:00,6.3,-6.1,29.80,NNW,345,4.5,7.4,56,0.00,,---,0.00,VWS V13.01,2013-01-31 16:30:00,
2013-01-31 10:31:00,6.3,-6.1,29.80,NNW,341,5.6,6.5,56,0.00,,---,0.00,VWS V13.01,2013-01-31 16:31:00,
2013-01-31 10:32:00,6.3,-6.1,29.80,WNW,300,5.1,6.5,56,0.00,,---,0.00,VWS V13.01,2013-01-31 16:32:00,
2013-01-31 10:33:00,6.3,-6.1,29.80,NNW,341,5.6,6.5,56,0.00,,---,0.00,VWS V13.01,2013-01-31 16:33:00,
2013-01-31 10:34:00,6.3,-6.1,29.80,NW,324,6.9,9.4,56,0.00,,---,0.00,VWS V13.01,2013-01-31 16:34:00,
2013-01-31 10:35:00,6.3,-6.1,29.80,WNW,289,6.0,6.9,56,0.00,,---,0.00,VWS V13.01,2013-01-31 16:35:00,
2013-01-31 10:36:00,6.3,-6.1,29.80,North,9,5.6,6.0,56,0.00,,---,0.00,VWS V13.01,2013-01-31 16:36:00,
2013-01-31 10:37:00,6.3,-6.1,29.80,ENE,62,7.8,7.8,56,0.00,,---,0.00,VWS V13.01,2013-01-31 16:37:00,
2013-01-31 10:38:00,6.3,-6.1,29.80,North,9,5.6,6.0,56,0.00,,---,0.00,VWS V13.01,2013-01-31 16:38:00,
2013-01-31 10:39:00,6.4,-5.9,29.83,NNW,327,6.0,6.9,56,0.00,,---,0.00,VWS V13.01,2013-01-31 16:39:00,
2013-01-31 10:40:00,6.4,-5.9,29.83,NNW,342,4.7,6.0,56,0.00,,---,0.00,VWS V13.01,2013-01-31 16:40:00,
2013-01-31 10:41:00,6.4,-5.9,29.83,North,353,6.5,6.5,56,0.00,,---,0.00,VWS V13.01,2013-01-31 16:41:00,
2013-01-31 10:42:00,6.4,-5.9,29.83,NE,42,4.5,6.5,56,0.00,,---,0.00,VWS V13.01,2013-01-31 16:42:00,
2013-01-31 10:43:00,6.4,-5.9,29.83,North,353,6.5,6.5,56,0.00,,---,0.00,VWS V13.01,2013-01-31 16:43:00,
2013-01-31 10:44:00,6.6,-5.7,29.83,NNW,328,5.1,5.6,56,0.00,,---,0.00,VWS V13.01,2013-01-31 16:44:00,
2013-01-31 10:45:00,6.6,-5.7,29.83,NNE,26,4.7,5.1,56,0.00,,---,0.00,VWS V13.01,2013-01-31 16:45:00,
2013-01-31 10:46:00,6.8,-5.6,29.83,NW,316,6.0,6.0,56,0.00,,---,0.00,VWS V13.01,2013-01-31 16:46:00,
2013-01-31 10:47:00,6.8,-5.6,29.83,WNW,301,4.5,6.0,56,0.00,,---,0.00,VWS V13.01,2013-01-31 16:47:00,
2013-01-31 10:48:00,7.0,-5.4,29.83,WNW,298,5.6,8.3,56,0.00,,---,0.00,VWS V13.01,2013-01-31 16:48:00,
2013-01-31 10:49:00,6.8,-5.6,29.83,WNW,301,4.5,6.0,56,0.00,,---,0.00,VWS V13.01,2013-01-31 16:49:00,
2013-01-31 10:50:00,6.8,-5.6,29.83,NW,326,7.4,9.8,56,0.00,,---,0.00,VWS V13.01,2013-01-31 16:50:00,
2013-01-31 10:51:00,7.0,-5.4,29.83,NW,312,7.4,7.4,56,0.00,,---,0.00,VWS V13.01,2013-01-31 16:51:00,
2013-01-31 10:52:00,7.0,-5.4,29.83,NNE,14,6.0,8.9,56,0.00,,---,0.00,VWS V13.01,2013-01-31 16:52:00,
2013-01-31 10:53:00,7.0,-5.4,29.83,NNW,331,5.6,7.8,56,0.00,,---,0.00,VWS V13.01,2013-01-31 16:53:00,
2013-01-31 10:54:00,7.0,-5.4,29.83,NNE,14,6.0,8.9,56,0.00,,---,0.00,VWS V13.01,2013-01-31 16:54:00,
2013-01-31 10:55:00,7.0,-5.4,29.83,NNE,25,5.6,6.9,56,0.00,,---,0.00,VWS V13.01,2013-01-31 16:55:00,
2013-01-31 10:56:00,7.2,-5.2,29.83,NW,306,5.6,6.9,56,0.00,,---,0.00,VWS V13.01,2013-01-31 16:56:00,
2013-01-31 10:57:00,7.2,-5.2,29.83,WNW,301,6.5,6.5,56,0.00,,---,0.00,VWS V13.01,2013-01-31 16:57:00,
2013-01-31 10:58:00,7.2,-5.2,29.83,NNW,342,5.6,6.5,56,0.00,,---,0.00,VWS V13.01,2013-01-31 16:58:00,
2013-01-31 10:59:00,7.2,-5.2,29.83,WNW,292,8.7,8.7,56,0.00,,---,0.00,VWS V13.01,2013-01-31 16:59:00,
2013-01-31 11:00:00,7.2,-5.2,29.83,NNW,342,5.6,6.5,56,0.00,,---,0.00,VWS V13.01,2013-01-31 17:00:00,
2013-01-31 18:43:00,3.7,-8.4,29.97,NW,326,4.7,4.7,56,0.00,,---,0.00,VWS V13.01,2013-02-01 00:43:00,
2013-01-31 18:49:00,3.6,-8.6,29.97,NNW,344,4.7,4.7,56,0.00,,---,0.00,VWS V13.01,2013-02-01 00:49:00,
2013-01-31 18:54:00,3.4,-8.8,29.97,WSW,250,4.0,4.0,56,0.00,,---,0.00,VWS V13.01,2013-02-01 00:54:00,
2013-01-31 18:59:00,3.4,-8.8,29.97,WNW,298,5.6,5.6,56,0.00,,---,0.00,VWS V13.01,2013-02-01 00:59:00,
2013-01-31 19:04:00,3.2,-8.9,29.97,NNE,32,3.1,5.1,56,0.00,,---,0.00,VWS V13.01,2013-02-01 01:04:00,
2013-01-31 19:09:00,3.2,-8.9,29.97,West,278,0.0,4.0,56,0.00,,---,0.00,VWS V13.01,2013-02-01 01:09:00,
2013-01-31 19:15:00,3.2,-8.9,29.97,WSW,247,5.6,6.5,56,0.00,,---,0.00,VWS V13.01,2013-02-01 01:15:00,
2013-01-31 19:21:00,3.2,-8.9,29.97,SW,235,4.0,4.7,56,0.00,,---,0.00,VWS V13.01,2013-02-01 01:21:00,
2013-01-31 19:27:00,2.8,-9.3,29.97,NNW,338,3.1,4.0,56,0.00,,---,0.00,VWS V13.01,2013-02-01 01:27:00,
2013-01-31 19:32:00,2.8,-9.3,29.97,NNW,341,5.1,5.6,56,0.00,,---,0.00,VWS V13.01,2013-02-01 01:32:00,
2013-01-31 19:37:00,2.8,-9.3,29.97,WNW,282,4.5,7.4,56,0.00,,---,0.00,VWS V13.01,2013-02-01 01:37:00,
2013-01-31 19:42:00,2.8,-9.3,30.00,North,5,3.6,5.1,56,0.00,,---,0.00,VWS V13.01,2013-02-01 01:42:00,
2013-01-31 19:48:00,2.7,-9.5,30.00,WNW,303,4.7,6.9,56,0.00,,---,0.00,VWS V13.01,2013-02-01 01:48:00,
2013-01-31 19:53:00,2.7,-9.5,30.00,NW,307,4.7,5.6,56,0.00,,---,0.00,VWS V13.01,2013-02-01 01:53:00,
2013-01-31 19:59:00,2.7,-9.5,30.00,West,272,3.6,4.5,56,0.00,,---,0.00,VWS V13.01,2013-02-01 01:59:00,
2013-01-31 20:04:00,2.7,-9.5,30.00,NNW,335,3.1,4.5,56,0.00,,---,0.00,VWS V13.01,2013-02-01 02:04:00,
2013-01-31 20:10:00,2.5,-9.6,30.00,North,353,5.1,5.1,56,0.00,,---,0.00,VWS V13.01,2013-02-01 02:10:00,
2013-01-31 20:15:00,2.5,-9.6,30.00,ESE,117,3.1,3.1,56,0.00,,---,0.00,VWS V13.01,2013-02-01 02:15:00,
2013-01-31 20:21:00,2.3,-9.8,30.00,West,275,3.6,5.6,56,0.00,,---,0.00,VWS V13.01,2013-02-01 02:21:00,
2013-01-31 20:27:00,2.3,-9.8,30.00,West,275,4.0,4.0,56,0.00,,---,0.00,VWS V13.01,2013-02-01 02:27:00,
2013-01-31 20:32:00,2.1,-10.0,30.00,WSW,253,3.1,3.6,56,0.00,,---,0.00,VWS V13.01,2013-02-01 02:32:00,
2013-01-31 20:37:00,2.3,-9.8,30.00,WSW,253,0.0,0.0,56,0.00,,---,0.00,VWS V13.01,2013-02-01 02:37:00,
2013-01-31 20:43:00,2.3,-9.8,30.00,NW,310,5.6,5.6,56,0.00,,---,0.00,VWS V13.01,2013-02-01 02:43:00,
2013-01-31 20:49:00,2.5,-9.6,30.00,NW,320,4.5,4.5,56,0.00,,---,0.00,VWS V13.01,2013-02-01 02:49:00,
2013-01-31 20:54:00,2.5,-9.6,30.00,NW,313,4.0,4.0,56,0.00,,---,0.00,VWS V13.01,2013-02-01 02:54:00,
2013-01-31 21:00:00,2.5,-9.6,30.00,West,281,3.1,4.5,56,0.00,,---,0.00,VWS V13.01,2013-02-01 03:00:00,
2013-01-31 21:05:00,2.5,-9.6,30.00,WNW,302,5.6,6.5,56,0.00,,---,0.00,VWS V13.01,2013-02-01 03:05:00,
2013-01-31 21:11:00,2.3,-9.8,30.03,West,278,5.1,5.6,56,0.00,,---,0.00,VWS V13.01,2013-02-01 03:11:00,
2013-01-31 21:16:00,2.3,-9.8,30.03,WNW,282,5.6,5.6,56,0.00,,---,0.00,VWS V13.01,2013-02-01 03:16:00,
2013-01-31 21:22:00,2.3,-9.8,30.03,NW,316,3.1,3.6,56,0.00,,---,0.00,VWS V13.01,2013-02-01 03:22:00,
2013-01-31 21:28:00,2.1,-10.0,30.03,NW,326,3.6,4.7,56,0.00,,---,0.00,VWS V13.01,2013-02-01 03:28:00,
2013-01-31 21:33:00,1.9,-10.1,30.03,WSW,248,3.6,4.5,56,0.00,,---,0.00,VWS V13.01,2013-02-01 03:33:00,
2013-01-31 21:39:00,1.9,-10.1,30.03,North,357,3.6,4.5,56,0.00,,---,0.00,VWS V13.01,2013-02-01 03:39:00,
2013-01-31 21:45:00,1.9,-10.1,30.03,WNW,294,3.1,5.1,56,0.00,,---,0.00,VWS V13.01,2013-02-01 03:45:00,
2013-01-31 21:50:00,1.8,-10.3,30.03,NW,324,4.0,4.7,56,0.00,,---,0.00,VWS V13.01,2013-02-01 03:50:00,
2013-01-31 21:56:00,1.6,-10.5,30.03,WSW,245,4.5,4.5,56,0.00,,---,0.00,VWS V13.01,2013-02-01 03:56:00,
2013-01-31 22:01:00,1.6,-10.5,30.03,West,278,4.5,4.7,56,0.00,,---,0.00,VWS V13.01,2013-02-01 04:01:00,
2013-01-31 22:07:00,1.6,-10.5,30.03,West,271,0.0,4.5,56,0.00,,---,0.00,VWS V13.01,2013-02-01 04:07:00,
2013-01-31 22:12:00,1.6,-10.5,30.03,West,271,4.0,4.0,56,0.00,,---,0.00,VWS V13.01,2013-02-01 04:12:00,
2013-01-31 22:18:00,1.6,-10.5,30.03,West,268,5.1,5.1,56,0.00,,---,0.00,VWS V13.01,2013-02-01 04:18:00,
2013-01-31 22:24:00,1.4,-10.6,30.03,West,267,4.7,5.1,56,0.00,,---,0.00,VWS V13.01,2013-02-01 04:24:00,
2013-01-31 22:29:00,1.2,-10.8,30.03,NW,318,4.0,4.5,56,0.00,,---,0.00,VWS V13.01,2013-02-01 04:29:00,
2013-01-31 22:34:00,1.2,-10.8,30.03,West,279,4.5,5.1,56,0.00,,---,0.00,VWS V13.01,2013-02-01 04:34:00,
2013-01-31 22:40:00,1.0,-11.0,30.03,West,261,3.1,4.5,56,0.00,,---,0.00,VWS V13.01,2013-02-01 04:40:00,
2013-01-31 22:46:00,0.9,-11.1,30.03,NNW,332,4.7,6.5,56,0.00,,---,0.00,VWS V13.01,2013-02-01 04:46:00,
2013-01-31 22:51:00,0.7,-11.3,30.03,WNW,288,5.1,5.1,56,0.00,,---,0.00,VWS V13.01,2013-02-01 04:51:00,
2013-01-31 22:57:00,0.7,-11.3,30.06,NW,323,5.6,6.0,56,0.00,,---,0.00,VWS V13.01,2013-02-01 04:57:00,
2013-01-31 23:01:00,0.5,-11.5,30.06,WNW,301,3.6,3.6,56,0.00,,---,0.00,VWS V13.01,2013-02-01 05:01:00,
2013-01-31 23:03:00,0.5,-11.5,30.06,NNW,334,5.6,5.6,56,0.00,,---,0.00,VWS V13.01,2013-02-01 05:03:00,
2013-01-31 23:06:00,0.3,-11.7,30.06,WNW,284,3.1,6.0,56,0.00,,---,0.00,VWS V13.01,2013-02-01 05:06:00,
2013-01-31 23:09:00,0.3,-11.7,30.06,WNW,284,5.6,6.9,56,0.00,,---,0.00,VWS V13.01,2013-02-01 05:09:00,
2013-01-31 23:15:00,0.3,-11.7,30.06,NNW,342,4.0,6.0,56,0.00,,---,0.00,VWS V13.01,2013-02-01 05:15:00,
2013-01-31 23:21:00,0.0,-12.0,30.06,NW,320,4.5,6.0,56,0.00,,---,0.00,VWS V13.01,2013-02-01 05:21:00,
2013-01-31 23:26:00,0.0,-12.0,30.06,NW,315,6.5,7.8,56,0.00,,---,0.00,VWS V13.01,2013-02-01 05:26:00,
2013-01-31 23:31:00,-0.4,-12.3,30.06,NW,306,4.0,4.7,56,0.00,,---,0.00,VWS V13.01,2013-02-01 05:31:00,
2013-01-31 23:36:00,-0.6,-12.5,30.06,NW,304,0.0,4.7,56,0.00,,---,0.00,VWS V13.01,2013-02-01 05:36:00,
2013-01-31 23:41:00,-0.8,-12.7,30.06,WNW,298,4.0,4.5,56,0.00,,---,0.00,VWS V13.01,2013-02-01 05:41:00,
2013-01-31 23:46:00,-0.9,-12.9,30.06,NW,319,4.0,6.0,56,0.00,,---,0.00,VWS V13.01,2013-02-01 05:46:00,
2013-01-31 23:52:00,-0.9,-12.9,30.06,West,271,4.0,4.7,56,0.00,,---,0.00,VWS V13.01,2013-02-01 05:52:00,
2013-01-31 23:57:00,-1.1,-13.0,30.06,WNW,285,0.0,4.5,56,0.00,,---,0.00,VWS V13.01,2013-02-01 05:57:00,